     2              OBSERVATION DATA    GPS                 RINEX VERSION / TYPE
teqc 2002Apr3 20050215 00:51:40UTC                          PGM / RUN BY / DATE
                                                            COMMENT
L2: 1 -> 1; 150 -> 5; 250 -> 9                              COMMENT
L2: 1 -> 1; 150 -> 5; 250 -> 9                              COMMENT
L2: 1 -> 1; 150 -> 5; 250 -> 9                              COMMENT
L2: 1 -> 1; 150 -> 5; 250 -> 9                              COMMENT
L2: 1 -> 1; 150 -> 5; 250 -> 9                              COMMENT
Original Marker Name: SWT4                                  COMMENT
Campaign Name: Rose Canyon Resurvey                         COMMENT
4-Character Station Name: SWT4                              COMMENT
6-Character Antenna Code: DMRCHT                            COMMENT
Vertical Measurement Point: BPA                             COMMENT
Vertical Offset to Rinex Ref. Point: 0.0000                 COMMENT
Radial Measurement Point: RRP                               COMMENT
Radial Offset to Rinex Ref. Point: 0.0000                   COMMENT
Antenna Height from Field Measurement: 0.8900 m             COMMENT
Additional Antenna Identification Info.:                    COMMENT
Turborogue and Ashtech Choke Ring                           COMMENT
Original XYZ: -2439994.0625 -4787356.6991 3424983.6091      COMMENT
New XYZ position is based on association with SCEC monument COMMENT
E1C8P0B7+0041. Position of that monument is believed to be  COMMENT
valid to within 1 m horizontally; vertical accuracy         COMMENT
should be no worse than 3-times this value.                 COMMENT
                                                            COMMENT
Revised Rinex header created by UCSD GPS archive for        COMMENT
GSAC on 21-Jul-2005 (2005:202) 16:57:24 GMT                 COMMENT
For assistance contact dagnew@ucsd.edu                      COMMENT
or anderson@python.ucsd.edu                                 COMMENT
                                                            COMMENT
SWT4 1998                                                   MARKER NAME
SJB SCRIPPS INSTITUTION OF OCEANOGRAPHY                     OBSERVER / AGENCY
378 ASHTECH Z-XII3 CC00                                     REC # / TYPE / VERS
653 DORNE-MARGOL. TYPE T                                    ANT # / TYPE
 -2439989.0000 -4787345.0000  3424967.0000                  APPROX POSITION XYZ
        0.8900        0.0000        0.0000                  ANTENNA: DELTA H/E/N
     1     1     0                                          WAVELENGTH FACT L1/2
     7    C1    L1    L2    P1    P2    S1    S2            # / TYPES OF OBSERV
     0                                                      INTERVAL
  2004    12    17     0     0   30.000000                  TIME OF FIRST OBS
  2004    12    17     1    10    0.000000                  TIME OF LAST OBS
                                                            END OF HEADER
 04 12 17  0  0 30.0000000  0  9G 4G 9G24G30G17G10G 6G 5G 2
  24501489.6174   -1232062.47249   -557614.97045  24501489.5424   24501496.0824
       208.0004        142.0004
  25045725.8324    -291024.37449   -183524.79045  25045725.2454   25045733.3424
       206.0004        142.0004
  23126407.5364  -15845258.97449 -12292739.61546  23126407.3114   23126413.4664
       224.0004        170.0004
  20521083.7534  -25726320.21349 -19629037.15547  20521083.9794   20521088.5534
       244.0004        211.0004
  20746663.5004  -24253048.40149 -18088474.87548  20746662.9644   20746668.4594
       243.0004        216.0004
  21109842.7664  -21352490.64949 -16229327.70047  21109841.8014   21109847.7664
       240.0004        203.0004
  23047569.4944  -11913564.15549  -9237316.48246  23047569.4504   23047575.4884
       220.0004        169.0004
  20379793.9374  -26623983.01849 -20731301.76948  20379793.5924   20379798.6984
       247.0004        218.0004
  21068135.3924  -29862204.17749 -23243153.86547  21068135.1844   21068138.1994
       240.0004        205.0004
 04 12 17  0  1  0.0000000  0  9G 4G 9G24G30G17G10G 6G 5G 2
  24520240.5664   -1133525.26549   -480832.70945  24520240.2114   24520246.6734
       207.0004        142.0004
  25062939.7094    -200565.35049   -113037.31645  25062939.9584   25062947.2844
       206.0004        142.0004
  23142942.8464  -15758365.61949 -12225030.51946  23142942.0954   23142948.9864
       224.0004        169.0004
  20514552.0164  -25760644.85349 -19655783.62047  20514552.3414   20514556.7114
       244.0004        211.0004
  20749550.4054  -24237877.55849 -18076653.43448  20749549.8464   20749555.6144
       243.0004        216.0004
  21100581.0564  -21401160.96049 -16267252.59347  21100580.1324   21100586.0344
       240.0004        203.0004
  23034611.7394  -11981657.37249  -9290376.09146  23034611.4604   23034617.3544
       221.0004        169.0004
  20385235.1054  -26595389.56349 -20709021.16148  20385234.8564   20385239.8354
       247.0004        218.0004
  21080143.6444  -29799100.52849 -23193982.19147  21080143.4604   21080146.3014
       241.0004        206.0004
 04 12 17  0  1 30.0000000  0  9G 4G 9G24G30G17G10G 6G 5G 2
  24538982.8884   -1035033.31549   -404085.71145  24538982.5164   24538988.2614
       206.0004        142.0004
  25080125.4554    -110253.72449    -42664.72045  25080125.8304   25080134.3754
       205.0004        143.0004
  23159488.4854  -15671417.75749 -12157278.95546  23159487.6104   23159494.2134
       222.0004        169.0004
  20508121.7024  -25794436.30249 -19682114.61647  20508121.8834   20508126.2704
       244.0004        211.0004
  20752502.4364  -24222364.50649 -18064565.33848  20752502.0224   20752507.4484
       243.0004        216.0004
  21091424.5074  -21449278.97049 -16304747.11647  21091423.7214   21091429.4544
       240.0004        203.0004
  23021657.4164  -12049733.07049  -9343422.03846  23021657.1884   23021663.9344
       221.0004        169.0004
  20390779.4404  -26566254.05849 -20686318.17448  20390779.0374   20390784.2194
       247.0004        218.0004
  21092203.1144  -29735727.58449 -23144600.68147  21092203.0624   21092205.9504
       241.0004        206.0004
 04 12 17  0  2  0.0000000  0  9G 4G 9G24G30G17G10G 6G 5G 2
  24557716.4774    -936587.44149   -327374.60945  24557717.1164   24557722.4094
       209.0004        142.0004
  25097282.6504     -20091.70949     27591.30845  25097282.4434   25097292.0374
       206.0004        143.0004
  23176044.1584  -15584416.93549 -12089486.12346  23176043.7994   23176049.6064
       225.0004        169.0004
  20501793.2464  -25827692.47149 -19708028.50747  20501793.6244   20501797.6524
       244.0004        211.0004
  20755519.3614  -24206510.46449 -18052211.53448  20755518.7434   20755524.3234
       243.0004        215.0004
  21082373.4044  -21496842.71149 -16341809.74447  21082372.6274   21082378.5094
       240.0004        203.0004
  23008706.4144  -12117790.58949  -9396453.82246  23008706.1544   23008713.0484
       221.0004        169.0004
  20396426.8184  -26536576.97249 -20663193.18048  20396426.4084   20396431.4894
       247.0004        218.0004
  21104313.5634  -29672087.07149 -23095010.67247  21104313.3284   21104316.3034
       240.0004        205.0004
 04 12 17  0  2 30.0000000  0  8G 4G24G30G17G10G 6G 5G 2
  24576441.3364    -838187.83049   -250699.54545  24576441.7934   24576447.6774
       208.0004        142.0004
  23192609.9524  -15497363.22149 -12021652.06946  23192610.0904   23192616.3094
       223.0004        169.0004
  20495567.1854  -25860410.59249 -19733523.13747  20495567.3844   20495571.9194
       244.0004        211.0004
  20758601.2044  -24190315.17949 -18039591.82448  20758600.5504   20758606.1174
       243.0004        215.0004
  21073428.5144  -21543848.40749 -16378437.53147  21073427.7804   21073433.4004
       239.0004        203.0004
  22995759.2304  -12185828.10249  -9449470.01946  22995758.6284   22995765.7704
       222.0004        170.0004
  20402177.3814  -26506357.53649 -20639645.57548  20402176.6974   20402182.0614
       247.0004        218.0004
  21116474.7804  -29608179.59349 -23045212.63747  21116474.5294   21116477.2284
       241.0004        205.0004
 04 12 17  0  3  0.0000000  0  8G 4G24G30G17G10G 6G 5G 2
  24595157.2624    -739835.07949   -174061.01045  24595156.7574   24595163.7254
       206.0004        142.0004
  23209185.5654  -15410257.74149 -11953777.67546  23209184.8664   23209191.2664
       224.0004        169.0004
  20489443.9524  -25892588.23849 -19758596.62747  20489444.3634   20489448.5904
       244.0004        211.0004
  20761747.8684  -24173779.15649 -18026706.61048  20761747.3514   20761752.9884
       243.0004        216.0004
  21064590.3344  -21590293.08949 -16414628.17047  21064589.5984   21064595.2434
       239.0004        203.0004
  22982816.0674  -12253844.28049  -9502469.59446  22982815.4784   22982822.2784
       221.0004        171.0004
  20408031.1284  -26475595.54049 -20615675.20148  20408030.6844   20408036.0384
       247.0004        218.0004
  21128686.4904  -29544006.51749 -22995207.64347  21128686.1854   21128689.2284
       240.0004        205.0004
 04 12 17  0  3 30.0000000  0  8G 4G24G30G17G10G 6G 5G 2
  24613863.3774    -641534.10149    -97462.80345  24613864.4964   24613870.1214
       209.0004        141.0004
  23225770.0294  -15323105.91949 -11885867.18746  23225770.0744   23225775.3704
       223.0004        169.0004
  20483423.1894  -25924227.59749 -19783250.66947  20483423.4814   20483428.0144
       244.0004        211.0004
  20764958.4594  -24156907.52749 -18013559.88148  20764958.0394   20764963.7624
       243.0004        216.0004
  21055858.5384  -21636178.72949 -16450383.18647  21055857.6934   21055863.5294
       239.0004        203.0004
  22969876.3894  -12321842.49549  -9555455.17946  22969876.3754   22969882.7884
       222.0004        172.0004
  20413987.3904  -26444295.27149 -20591285.38948  20413987.0214   20413992.2274
       247.0004        218.0004
  21140947.6494  -29479573.68349 -22945000.24147  21140947.4874   21140950.3724
       240.0004        205.0004
 04 12 17  0  4  0.0000000  0  8G 4G24G30G17G10G 6G 5G 2
  24632559.3084    -543286.09149    -20905.87745  24632559.6444   24632565.5784
       206.0004        141.0004
  23242363.0684  -15235909.18449 -11817921.69346  23242362.9574   23242368.6354
       223.0004        169.0004
  20477505.2474  -25955326.72949 -19807483.75347  20477505.5484   20477509.8814
       244.0004        212.0004
  20768232.7144  -24139701.25649 -18000152.39548  20768232.1924   20768237.7104
       243.0004        216.0004
  21047233.6434  -21681502.61149 -16485700.46547  21047232.7844   21047238.7974
       239.0004        203.0004
  22956940.2684  -12389822.01749  -9608426.19346  22956940.1214   22956946.5554
       222.0004        173.0004
  20420046.0054  -26412457.12649 -20566476.45248  20420045.5274   20420050.7314
       247.0004        218.0004
  21153257.9384  -29414882.89249 -22894591.83147  21153257.6244   21153260.6254
       241.0004        205.0004
 04 12 17  0  4 30.0000000  0  7G24G30G17G10G 6G 5G 2
  23258964.7584  -15148666.98049 -11749940.76546  23258965.0444   23258970.3824
       224.0004        169.0004
  20471690.6774  -25985882.14549 -19831293.16847  20471690.9834   20471695.6514
       244.0004        212.0004
  20771570.7804  -24122159.71849 -17986483.66248  20771570.3814   20771575.9884
       243.0004        216.0004
  21038716.4074  -21726260.82649 -16520576.96647  21038715.7704   21038721.5694
       240.0004        204.0004
  22944008.2294  -12457780.20749  -9661380.58846  22944007.8844   22944014.9694
       222.0004        173.0004
  20426207.2554  -26380079.68949 -20541247.29248  20426206.8614   20426212.1234
       247.0004        218.0004
  21165617.2844  -29349934.09149 -22843982.38147  21165617.2284   21165620.1484
       240.0004        205.0004
 04 12 17  0  5  0.0000000  0  7G24G30G17G10G 6G 5G 2
  23275574.8984  -15061380.43149 -11681925.29546  23275575.2554   23275580.6284
       222.0004        169.0004
  20465980.0814  -26015891.41549 -19854677.01147  20465980.4174   20465984.6164
       244.0004        212.0004
  20774972.5514  -24104283.25249 -17972553.94648  20774971.9464   20774977.7124
       243.0004        216.0004
  21030307.4424  -21770450.24149 -16555010.24947  21030306.6224   21030312.4714
       239.0004        204.0004
  22931080.4854  -12525715.74249  -9714317.33146  22931080.2044   22931086.5404
       223.0004        174.0004
  20432471.1124  -26347162.90449 -20515597.85948  20432470.6954   20432475.7524
       247.0004        217.0004
  21178025.5034  -29284728.50149 -22793172.83547  21178025.4884   21178028.2074
       241.0004        205.0004
 04 12 17  0  5 30.0000000  0  7G24G30G17G10G 6G 5G 2
  23292192.3934  -14974054.87649 -11613879.41846  23292192.4514   23292198.0794
       222.0004        168.0004
  20460372.9274  -26045357.01149 -19877637.20847  20460373.1284   20460377.6534
       244.0004        212.0004
  20778437.0654  -24086076.89049 -17958367.15948  20778436.4684   20778442.0884
       243.0004        215.0004
  21022006.3234  -21814072.88549 -16589001.89047  21022005.6384   21022011.0854
       240.0004        204.0004
  22918156.4454  -12593631.87349  -9767238.94246  22918156.3904   22918162.4984
       223.0004        173.0004
  20438836.7384  -26313711.36649 -20489531.73248  20438836.2484   20438841.3894
       247.0004        217.0004
  21190481.4994  -29219271.85149 -22742167.66047  21190481.3554   21190484.2364
       240.0004        205.0004
 04 12 17  0  6  0.0000000  0  7G24G30G17G10G 6G 5G 2
  23308817.2444  -14886690.82749 -11545803.54046  23308817.2924   23308823.2284
       222.0004        168.0004
  20454869.7154  -26074276.48749 -19900171.86147  20454870.0484   20454874.4274
       244.0004        212.0004
  20781964.2674  -24067541.30249 -17943923.84248  20781963.8264   20781969.3924
       243.0004        215.0004
  21013813.6164  -21857125.92849 -16622549.69047  21013813.0304   21013818.5064
       240.0004        204.0004
  22905236.3904  -12661527.40849  -9820144.52446  22905236.4754   22905242.4614
       224.0004        173.0004
  20445304.1864  -26279724.76649 -20463048.68048  20445303.7314   20445308.9614
       247.0004        217.0004
  21202985.0204  -29153565.57349 -22690967.96647  21202984.8594   21202987.7364
       241.0004        205.0004
 04 12 17  0  6 30.0000000  0  7G24G30G17G10G 6G 5G 2
  23325449.0784  -14799289.95649 -11477698.96946  23325449.3274   23325455.5914
       222.0004        168.0004
  20449470.7384  -26102648.35449 -19922279.80547  20449470.9964   20449475.6364
       244.0004        212.0004
  20785553.8574  -24048677.64749 -17929224.88448  20785553.3614   20785558.9584
       242.0004        215.0004
  21005729.5984  -21899607.60949 -16655652.27147  21005728.9764   21005734.5254
       240.0004        204.0004
  22892320.3614  -12729401.60449  -9873033.46446  22892320.5464   22892325.8184
       224.0004        174.0004
  20451873.3094  -26245203.80649 -20436149.23848  20451872.9034   20451878.0234
       247.0004        217.0004
  21215535.6484  -29087611.56849 -22639575.24447  21215535.3114   21215538.2464
       240.0004        205.0004
 04 12 17  0  7  0.0000000  0  7G24G30G17G10G 6G 5G 2
  23342087.9344  -14711851.94849 -11409565.46846  23342087.8694   23342094.2304
       222.0004        167.0004
  20444176.6574  -26130468.88549 -19943958.13747  20444177.0214   20444181.5014
       244.0004        212.0004
  20789206.0574  -24029485.01949 -17914269.58748  20789205.5524   20789211.1394
       243.0004        215.0004
  20997755.0924  -21941513.55849 -16688306.22847  20997754.3774   20997760.0854
       239.0004        204.0004
  22879408.8604  -12797251.75349  -9925903.68146  22879408.5754   22879414.8154
       224.0004        174.0004
  20458544.3874  -26210147.03349 -20408832.28348  20458543.9754   20458549.1194
       247.0004        217.0004
  21228133.4494  -29021409.55949 -22587989.27547  21228133.2494   21228135.9614
       240.0004        204.0004
 04 12 17  0  7 30.0000000  0  7G24G30G17G10G 6G 5G 2
  23358733.1464  -14624380.82349 -11341406.15846  23358732.7664   23358739.2124
       221.0004        167.0004
  20438987.2964  -26157739.19949 -19965207.72947  20438987.6434   20438992.2224
       245.0004        212.0004
  20792920.1494  -24009967.24949 -17899060.92848  20792919.7114   20792925.2484
       242.0004        215.0004
  20989890.1014  -21982844.01249 -16720511.75147  20989889.3824   20989895.1724
       240.0004        204.0004
  22866501.6254  -12865079.65149  -9978756.55346  22866501.8204   22866507.7714
       225.0004        173.0004
  20465316.8334  -26174557.63949 -20381100.29748  20465316.2564   20465321.6544
       246.0004        217.0004
  21240777.5824  -28954964.09649 -22536213.60647  21240777.3564   21240780.2284
       240.0004        204.0004
 04 12 17  0  8  0.0000000  0  7G24G30G17G10G 6G 5G 2
  23375384.5704  -14536876.76749 -11273221.18746  23375383.7494   23375390.7154
       220.0004        167.0004
  20433903.1914  -26184456.47449 -19986026.38247  20433903.4634   20433907.9514
       245.0004        212.0004
  20796696.1114  -23990124.38049 -17883598.94348  20796695.5374   20796701.1724
       242.0004        215.0004
  20982135.2474  -22023595.94749 -16752266.48147  20982134.5314   20982140.2024
       240.0004        204.0004
  22853598.9094  -12932883.65449 -10031590.79646  22853598.5134   22853604.7814
       223.0004        173.0004
  20472190.6284  -26138435.39749 -20352953.10548  20472190.0784   20472195.4044
       246.0004        217.0004
  21253467.9154  -28888275.92949 -22484248.81547  21253467.6314   21253470.6154
       239.0004        204.0004
 04 12 17  0  8 30.0000000  0  7G24G30G17G10G 6G 5G 2
  23392041.8984  -14449341.50249 -11205011.89746  23392041.8364   23392048.1284
       220.0004        166.0004
  20428924.5254  -26210619.63049 -20006413.25448  20428924.9904   20428929.3014
       245.0004        213.0004
  20800533.6164  -23969958.03049 -17867884.89648  20800533.0614   20800538.6204
       242.0004        215.0004
  20974490.7354  -22063767.97449 -16783569.33447  20974489.9734   20974495.7694
       240.0004        205.0004
  22840700.7364  -13000663.21849 -10084405.99646  22840700.6924   22840707.1704
       224.0004        174.0004
  20479165.6364  -26101781.35249 -20324391.51848  20479165.2294   20479170.3664
       247.0004        217.0004
  21266203.9824  -28821347.30049 -22432096.65147  21266203.9234   21266206.5334
       240.0004        203.0004
 04 12 17  0  9  0.0000000  0  8G24G30G17G21G10G 6G 5G 2
  23408703.5194  -14361783.88049 -11136785.18246  23408703.9114   23408709.8084
       220.0004        166.0004
  20424050.1894  -26236234.60349 -20026372.97547  20424050.5144   20424054.8634
       245.0004        212.0004
  20804431.1174  -23949476.67449 -17851925.39448  20804430.6324   20804436.0144
       242.0004        215.0004
  24914213.4194   -5335276.04759  -4119102.33045  24914211.3904   24914219.2344
       206.0004        136.0004
  20966955.6104  -22103365.23949 -16814424.32647  20966954.8694   20966960.5264
       240.0004        205.0004
  22827806.0824  -13068425.13149 -10137207.45046  22827806.0794   22827811.8444
       224.0004        175.0004
  20486240.4014  -26064603.30149 -20295421.61848  20486239.8814   20486245.3814
       246.0004        217.0004
  21278984.0384  -28754187.46349 -22379764.32647  21278983.9864   21278987.0004
       239.0004        203.0004
 04 12 17  0  9 30.0000000  0  8G24G30G17G21G10G 6G 5G 2
  23425370.3824  -14274199.10449 -11068537.29946  23425370.3344   23425377.1454
       220.0004        166.0004
  20419281.6394  -26261293.36049 -20045899.27547  20419281.9254   20419286.2794
       245.0004        212.0004
  20808389.4894  -23928675.14549 -17835716.39748  20808388.9724   20808394.6344
       242.0004        215.0004
  24897766.7134   -5421703.51549  -4186448.26745  24897764.8064   24897771.0384
       206.0004        135.0004
  20959531.4614  -22142379.43749 -16844824.97247  20959530.5694   20959536.3594
       241.0004        205.0004
  22814916.1514  -13136162.19649 -10189989.53646  22814916.4424   22814921.6504
       225.0004        175.0004
  20493415.9584  -26026895.58349 -20266038.98948  20493415.5344   20493420.6904
       247.0004        217.0004
  21291808.9624  -28686791.84749 -22327248.27447  21291808.8074   21291811.6124
       239.0004        203.0004
 04 12 17  0 10  0.0000000  0  8G24G30G17G21G10G 6G 5G 2
  23442042.5834  -14186585.94849 -11000267.30846  23442043.1414   23442049.4564
       220.0004        165.0004
  20414619.7294  -26285791.99149 -20064989.11148  20414620.0934   20414624.3304
       245.0004        213.0004
  20812409.0924  -23907551.96949 -17819256.77348  20812408.4394   20812414.1144
       243.0004        215.0004
  24881346.8314   -5507990.03749  -4253684.37945  24881347.0924   24881352.8934
       206.0004        136.0004
  20952219.1254  -22180806.21449 -16874767.88947  20952218.3614   20952223.9444
       241.0004        205.0004
  22802031.5614  -13203871.16349 -10242749.72446  22802031.5424   22802037.5524
       225.0004        175.0004
  20500692.6624  -25988656.45849 -20236242.27248  20500692.0964   20500697.4084
       247.0004        217.0004
  21304678.9094  -28619159.74449 -22274547.93647  21304678.7784   21304681.8354
       239.0004        203.0004
 04 12 17  0 10 30.0000000  0  8G24G30G17G21G10G 6G 5G 2
  23458719.9674  -14098945.30249 -10931975.90246  23458719.8764   23458726.6754
       220.0004        164.0004
  20410064.7114  -26309728.53349 -20083640.96748  20410065.0164   20410069.5124
       245.0004        213.0004
  20816489.6894  -23886108.06349 -17802547.23548  20816489.1544   20816495.0474
       242.0004        215.0004
  24864954.1794   -5594133.65749  -4320809.16045  24864953.7814   24864960.7884
       207.0004        137.0004
  20945019.0394  -22218642.79949 -16904250.92047  20945018.2764   20945024.0254
       240.0004        205.0004
  22789152.5694  -13271550.59249 -10295486.90346  22789153.2084   22789158.0824
       225.0004        176.0004
  20508070.3594  -25949886.25849 -20206031.73848  20508069.9294   20508075.1734
       247.0004        217.0004
  21317593.6524  -28551292.54749 -22221664.42147  21317593.5374   21317596.4574
       239.0004        202.0004
 04 12 17  0 11  0.0000000  0  8G24G30G17G21G10G 6G 5G 2
  23475401.9744  -14011281.07549 -10863666.12146  23475401.1684   23475408.7804
       219.0004        164.0004
  20405616.4874  -26333104.11449 -20101855.69848  20405616.7854   20405621.2344
       245.0004        213.0004
  20820630.6754  -23864347.12149 -17785590.65248  20820630.0384   20820635.8854
       242.0004        215.0004
  24848588.1834   -5680136.86549  -4387824.53245  24848586.0724   24848594.3834
       207.0004        137.0004
  20937931.0154  -22255890.28749 -16933274.90847  20937930.1334   20937935.9564
       240.0004        205.0004
  22776278.7914  -13339202.33049 -10348202.50946  22776278.8004   22776284.4604
       224.0004        176.0004
  20515548.5114  -25910588.38049 -20175410.02348  20515548.0124   20515553.3794
       247.0004        217.0004
  21330552.2934  -28483194.68549 -22168601.16047  21330552.2164   21330555.0724
       239.0004        202.0004
 04 12 17  0 11 30.0000000  0  8G24G30G17G21G10G 6G 5G 2
  23492088.0714  -13923594.79349 -10795339.15146  23492087.7964   23492094.0034
       219.0004        163.0004
  20401275.2234  -26355917.57549 -20119632.42048  20401275.5814   20401280.0484
       244.0004        213.0004
  20824831.6544  -23842270.55549 -17768388.13048  20824831.1194   20824836.7904
       242.0004        215.0004
  24832249.2464   -5765998.14949  -4454729.32245  24832248.2524   24832253.3314
       206.0004        137.0004
  20930955.4494  -22292547.03149 -16961838.58247  20930954.6224   20930960.2784
       240.0004        205.0004
  22763410.3484  -13406826.25249 -10400896.44546  22763409.1904   22763416.5424
       223.0004        175.0004
  20523126.8374  -25870764.03449 -20144378.07648  20523126.3454   20523131.8484
       247.0004        217.0004
  21343554.3594  -28414868.32149 -22115359.85347  21343554.2454   21343557.2474
       238.0004        202.0004
 04 12 17  0 12  0.0000000  0  8G24G30G17G21G10G 6G 5G 2
  23508778.1534  -13835887.71449 -10726995.96446  23508777.6024   23508784.0934
       219.0004        163.0004
  20397041.2504  -26378167.16949 -20136969.76148  20397041.5524   20397046.0494
       245.0004        213.0004
  20829092.5544  -23819879.32949 -17750940.41448  20829092.1004   20829097.6664
       242.0004        215.0004
  24815937.4904   -5851716.57349  -4521522.80745  24815935.7354   24815943.1504
       208.0004        138.0004
  20924092.7394  -22328610.55149 -16989939.99747  20924092.0434   20924097.8724
       241.0004        205.0004
  22750547.4034  -13474421.06249 -10453567.69846  22750547.0744   22750553.4604
       222.0004        175.0004
  20530805.2684  -25830413.73249 -20112936.29348  20530804.8104   20530810.1604
       247.0004        217.0004
  21356599.6294  -28346314.90549 -22061941.61047  21356599.5944   21356602.3284
       239.0004        201.0004
 04 12 17  0 12 30.0000000  0  8G24G30G17G21G10G 6G 5G 2
  23525471.8394  -13748162.19049 -10658638.41746  23525471.8754   23525478.5104
       219.0004        163.0004
  20392914.6584  -26399852.51849 -20153867.42948  20392914.9994   20392919.3724
       244.0004        213.0004
  20833412.9374  -23797175.76349 -17733249.32648  20833412.4994   20833418.1384
       242.0004        215.0004
  24799652.8594   -5937292.43049  -4588205.19345  24799652.5984   24799657.2704
       208.0004        138.0004
  20917343.0224  -22364080.39249 -17017578.81247  20917342.3354   20917348.1964
       240.0004        206.0004
  22737689.9904  -13541987.03049 -10506216.47546  22737690.3554   22737695.5124
       224.0004        176.0004
  20538583.4474  -25789539.14649 -20081085.98048  20538582.9854   20538588.4094
       246.0004        217.0004
  21369687.5704  -28277537.42449 -22008348.77447  21369687.5734   21369690.5224
       238.0004        201.0004
 04 12 17  0 13  0.0000000  0  8G24G30G17G21G10G 6G 5G 2
  23542168.7884  -13660419.25549 -10590267.30146  23542167.8864   23542175.0274
       219.0004        163.0004
  20388895.7274  -26420972.04449 -20170324.19148  20388896.0714   20388900.4474
       245.0004        213.0004
  20837792.5764  -23774160.59649 -17715315.42148  20837792.0174   20837797.6854
       242.0004        215.0004
  24783395.5644   -6022724.16549  -4654775.25645  24783394.3734   24783402.3824
       209.0004        140.0004
  20910706.7084  -22398954.28649 -17044753.24147  20910706.0994   20910711.7414
       241.0004        206.0004
  22724838.3734  -13609522.64149 -10558841.59946  22724838.8214   22724843.9844
       225.0004        176.0004
  20546461.3334  -25748140.49349 -20048827.29548  20546460.9014   20546466.2814
       246.0004        217.0004
  21382817.8744  -28208537.08949 -21954582.27747  21382817.7034   21382820.6694
       238.0004        201.0004
 04 12 17  0 13 30.0000000  0  8G24G30G17G21G10G 6G 5G 2
  23558868.5914  -13572661.29349 -10521884.47746  23558868.7254   23558875.1044
       219.0004        163.0004
  20384984.5304  -26441525.49549 -20186339.86348  20384984.7994   20384989.3654
       244.0004        213.0004
  20842231.0214  -23750836.29349 -17697140.63848  20842230.4744   20842236.0584
       243.0004        215.0004
  24767165.8124   -6108011.86849  -4721233.10045  24767165.3484   24767171.5584
       209.0004        140.0004
  20904183.9514  -22433231.57249 -17071462.79147  20904183.1854   20904188.7424
       240.0004        206.0004
  22711992.3884  -13677028.45349 -10611443.50946  22711992.0854   22711998.1934
       224.0004        176.0004
  20554438.5024  -25706220.07549 -20016162.04648  20554438.0494   20554443.2624
       246.0004        216.0004
  21395990.0434  -28139316.87449 -21900644.45647  21395990.1044   21395992.9484
       239.0004        201.0004
 04 12 17  0 14  0.0000000  0  8G24G30G17G21G10G 6G 5G 2
  23575570.9664  -13484889.67149 -10453490.99445  23575570.7024   23575576.9254
       218.0004        162.0004
  20381181.2574  -26461511.66749 -20201913.49348  20381181.5724   20381186.1384
       245.0004        213.0004
  20846728.0634  -23727204.08649 -17678725.92848  20846727.5714   20846733.2404
       243.0004        215.0004
  24750963.5034   -6193155.03349  -4787578.31345  24750962.4054   24750969.4854
       208.0004        140.0004
  20897775.0024  -22466910.69749 -17097706.23447  20897774.0424   20897780.0584
       240.0004        206.0004
  22699152.2934  -13744503.92849 -10664021.76946  22699152.6044   22699158.1744
       226.0004        176.0004
  20562514.7184  -25663778.93849 -19983091.03848  20562514.2484   20562519.6564
       246.0004        216.0004
  21409203.6964  -28069878.80449 -21846536.86847  21409203.5174   21409206.3824
       239.0004        201.0004
 04 12 17  0 14 30.0000000  0  8G24G30G17G21G10G 6G 5G 2
  23592275.6994  -13397105.50049 -10385087.75345  23592275.5874   23592282.7724
       218.0004        162.0004
  20377486.2064  -26480929.22349 -20217044.04548  20377486.5704   20377491.1884
       245.0004        213.0004
  20851283.4924  -23703265.19849 -17660072.25348  20851282.9474   20851288.7144
       242.0004        215.0004
  24734788.9564   -6278152.56649  -4853810.04545  24734788.9924   24734793.4104
       208.0004        140.0004
  20891480.1914  -22499989.88349 -17123482.19647  20891479.3604   20891485.0534
       241.0004        206.0004
  22686318.0754  -13811948.14749 -10716575.68346  22686317.8594   22686324.3344
       224.0004        176.0004
  20570689.9884  -25620817.84749 -19949614.87148  20570689.5284   20570694.8554
       246.0004        216.0004
  21422458.3944  -28000224.74649 -21792260.98147  21422458.0614   21422461.2014
       238.0004        200.0004
 04 12 17  0 15  0.0000000  0  8G24G30G17G21G10G 6G 5G 2
  23608982.3144  -13309311.16149 -10316676.58045  23608981.8824   23608988.9184
       219.0004        161.0004
  20373899.4364  -26499777.76749 -20231731.21248  20373899.6734   20373904.2214
       245.0004        213.0004
  20855896.8654  -23679021.69549 -17641181.21148  20855896.2734   20855901.8344
       243.0004        214.0004
  24718642.0794   -6363004.53849  -4919928.34545  24718641.1514   24718647.6924
       208.0004        139.0004
  20885299.7294  -22532468.27149 -17148790.00647  20885298.9584   20885304.7564
       241.0004        206.0004
  22673489.7334  -13879361.18849 -10769105.29546  22673489.5904   22673496.3164
       226.0004        176.0004
  20578963.8104  -25577338.64549 -19915734.98348  20578963.5004   20578968.5674
       246.0004        216.0004
  21435753.6954  -27930357.29449 -21737818.80647  21435753.1974   21435756.4164
       238.0004        200.0004
 04 12 17  0 15 30.0000000  0  8G24G30G17G21G10G 6G 5G 2
  23625690.9434  -13221506.93749 -10248257.70845  23625690.9054   23625697.1374
       218.0004        161.0004
  20370421.3274  -26518055.14049 -20245973.31148  20370421.5114   20370426.0734
       245.0004        213.0004
  20860568.2024  -23654473.77149 -17622052.95748  20860567.8194   20860573.4094
       243.0004        214.0004
  24702523.0804   -6447709.18349  -4985931.85545  24702522.3604   24702528.5414
       207.0004        139.0004
  20879234.1534  -22564343.07949 -17173627.49147  20879233.2284   20879239.0574
       240.0004        206.0004
  22660667.7384  -13946740.98349 -10821609.00246  22660667.7064   22660673.4884
       226.0004        177.0004
  20587336.1994  -25533341.41949 -19881451.43648  20587335.6244   20587341.1434
       246.0004        216.0004
  21449089.4434  -27860277.34249 -21683211.04947  21449089.1354   21449092.3034
       237.0004        200.0004
 04 12 17  0 16  0.0000000  0  8G24G30G17G21G10G 6G 5G 2
  23642400.9394  -13133695.40049 -10179833.13645  23642401.3064   23642407.2584
       220.0004        161.0004
  20367051.9524  -26535761.35949 -20259770.35348  20367052.2634   20367056.7224
       245.0004        213.0004
  20865296.9244  -23629624.16549 -17602689.62448  20865296.4164   20865301.9504
       243.0004        214.0004
  24686432.1634   -6532267.18449  -5051821.09445  24686430.4304   24686438.1324
       208.0004        141.0004
  20873283.4614  -22595613.96549 -17197994.39247  20873282.6774   20873288.3184
       241.0004        206.0004
  22647851.9624  -14014088.22049 -10874087.32946  22647851.6694   22647857.8554
       226.0004        177.0004
  20595806.7404  -25488828.40349 -19846765.97848  20595806.3804   20595811.7174
       246.0004        216.0004
  21462465.0264  -27789987.95349 -21628440.09047  21462464.8554   21462467.8884
       238.0004        199.0004
 04 12 17  0 16 30.0000000  0  8G24G30G17G21G10G 6G 5G 2
  23659112.1304  -13045877.74249 -10111403.78645  23659112.0984   23659119.4424
       219.0004        161.0004
  20363791.5344  -26552895.10249 -20273121.31048  20363791.8104   20363796.2714
       245.0004        213.0004
  20870082.8544  -23604473.82149 -17583091.94948  20870082.3034   20870087.9994
       242.0004        214.0004
  24670369.4234   -6616676.88949  -5117594.81045  24670368.6594   24670375.1774
       211.0004        141.0004
  20867448.0074  -22626279.45549 -17221889.56147  20867447.3074   20867452.7664
       241.0004        206.0004
  22635042.6434  -14081401.71649 -10926539.37746  22635042.4364   22635048.3364
       226.0004        178.0004
  20604375.2744  -25443800.57149 -19811679.36448  20604374.8984   20604380.1864
       246.0004        216.0004
  21475880.2474  -27719490.53149 -21573507.02947  21475880.1484   21475883.0554
       237.0004        199.0004
 04 12 17  0 17  0.0000000  0  8G24G30G17G21G10G 6G 5G 2
  23675824.0894  -12958055.62249 -10042970.96145  23675824.4184   23675829.9184
       219.0004        161.0004
  20360640.1744  -26569455.49149 -20286025.50148  20360640.4224   20360645.0184
       245.0004        213.0004
  20874925.7404  -23579024.24949 -17563261.10748  20874925.0304   20874930.8894
       242.0004        214.0004
  24654335.0224   -6700937.89549  -5183252.66845  24654334.5294   24654339.7874
       210.0004        141.0004
  20861728.0154  -22656338.04249 -17245311.81747  20861727.1174   20861732.9464
       241.0004        206.0004
  22622239.8334  -14148680.95649 -10978964.71846  22622239.5894   22622245.4014
       226.0004        178.0004
  20613041.5014  -25398259.23549 -19776192.62048  20613041.0594   20613046.4804
       246.0004        216.0004
  21489334.6904  -27648787.03949 -21518413.39747  21489334.4734   21489337.4074
       237.0004        199.0004
 04 12 17  0 17 30.0000000  0  8G24G30G17G21G10G 6G 5G 2
  23692536.6744  -12870230.23249  -9974535.59745  23692536.3484   23692543.4674
       219.0004        160.0004
  20357598.1494  -26585441.24549 -20298481.92648  20357598.5184   20357602.8474
       245.0004        213.0004
  20879825.2984  -23553276.68749 -17543198.06548  20879824.6884   20879830.4464
       242.0004        214.0004
  24638329.0824   -6785049.39349  -5248794.04045  24638327.8014   24638334.9014
       212.0004        141.0004
  20856123.7784  -22685788.27349 -17268260.03047  20856123.0964   20856128.6684
       241.0004        206.0004
  22609443.5924  -14215925.11849 -11031362.71046  22609442.8284   22609449.5754
       225.0004        178.0004
  20621805.3434  -25352205.00449 -19740306.21448  20621804.9224   20621810.2304
       246.0004        216.0004
  21502827.9314  -27577879.55249 -21463160.80247  21502827.5624   21502830.7154
       237.0004        199.0004
 04 12 17  0 18  0.0000000  0  8G24G30G17G21G10G 6G 5G 2
  23709249.5834  -12782403.20149  -9906098.94245  23709249.9584   23709256.5934
       218.0004        160.0004
  20354665.5854  -26600852.04549 -20310490.33548  20354665.8884   20354670.2904
       245.0004        213.0004
  20884781.2074  -23527233.24349 -17522904.46748  20884780.7074   20884786.2414
       242.0004        214.0004
  24622351.6934   -6869011.19549  -5314218.78345  24622350.2424   24622356.8554
       209.0004        142.0004
  20850635.5134  -22714629.24849 -17290733.49947  20850634.7064   20850640.4934
       241.0004        206.0004
  22596654.1284  -14283134.03449 -11083733.24546  22596653.9824   22596660.3494
       226.0004        179.0004
  20630666.4054  -25305639.81249 -19704021.65948  20630665.8874   20630671.2524
       245.0004        215.0004
  21516359.5234  -27506770.55149 -21407751.19147  21516359.1454   21516362.1704
       237.0004        198.0004
 04 12 17  0 18 30.0000000  0  8G24G30G17G21G10G 6G 5G 2
  23725962.6614  -12694575.36749  -9837661.66245  23725961.6494   23725968.3804
       216.0004        159.0004
  20351842.7084  -26615686.10649 -20322049.33748  20351843.0424   20351847.4024
       245.0004        213.0004
  20889793.3104  -23500894.32749 -17502380.63148  20889792.7574   20889798.3414
       242.0004        214.0004
  24606402.9724   -6952821.63149  -5379525.56445  24606402.3324   24606408.4024
       208.0004        140.0004
  20845263.5914  -22742858.82349 -17312730.55247  20845262.9354   20845268.5494
       241.0004        207.0004
  22583871.6474  -14350306.19449 -11136075.11946  22583871.1614   22583877.8134
       227.0004        180.0004
  20639624.5574  -25258564.34149 -19667339.48748  20639623.9864   20639629.4034
       246.0004        215.0004
  21529929.2444  -27435461.14549 -21352185.41147  21529928.8604   21529932.0794
       237.0004        198.0004
 04 12 17  0 19  0.0000000  0  8G24G30G17G21G10G 6G 5G 2
  23742675.3204  -12606749.56249  -9769225.96545  23742675.0184   23742681.8214
       216.0004        159.0004
  20349129.5394  -26629943.83049 -20333159.24148  20349129.9504   20349134.2884
       245.0004        213.0004
  20894861.0944  -23474262.89249 -17481628.85448  20894860.5694   20894866.1994
       242.0004        214.0004
  24590482.9734   -7036481.75049  -5444715.24245  24590481.9144   24590488.4154
       208.0004        140.0004
  20840007.9864  -22770477.16649 -17334251.32147  20840007.4534   20840012.8884
       241.0004        207.0004
  22571096.0634  -14417442.23849 -11188388.88046  22571096.3454   22571101.9884
       228.0004        180.0004
  20648679.3014  -25210981.38749 -19630261.87348  20648678.9174   20648684.2344
       246.0004        215.0004
  21543536.5094  -27363954.54949 -21296465.98447  21543536.1704   21543539.4374
       237.0004        198.0004
 04 12 17  0 19 30.0000000  0  8G24G30G17G21G10G 6G 5G 2
  23759387.6294  -12518925.72949  -9700791.80645  23759387.7884   23759393.6384
       218.0004        159.0004
  20346526.4284  -26643623.34849 -20343818.59848  20346526.6734   20346531.0994
       245.0004        213.0004
  20899984.4724  -23447339.19049 -17460649.33748  20899983.9624   20899989.6654
       242.0004        214.0004
  24574591.8674   -7119989.63249  -5509786.29645  24574591.6844   24574597.7234
       207.0004        139.0004
  20834869.1504  -22797481.80549 -17355293.87647  20834868.3514   20834874.0834
       241.0004        207.0004
  22558327.7274  -14484540.34849 -11240673.06746  22558327.1954   22558333.6354
       228.0004        180.0004
  20657830.5994  -25162890.99049 -19592788.84548  20657830.0824   20657835.5644
       245.0004        215.0004
  21557181.1014  -27292251.59349 -21240593.54947  21557181.1344   21557183.8984
       236.0004        198.0004
 04 12 17  0 20  0.0000000  0  8G24G30G17G21G10G 6G 5G 2
  23776099.2724  -12431105.71649  -9632360.61545  23776098.7294   23776105.4914
       218.0004        159.0004
  20344033.4004  -26656724.01549 -20354026.89948  20344033.7194   20344038.0984
       245.0004        213.0004
  20905163.1734  -23420124.87049 -17439443.36348  20905162.5774   20905168.3684
       242.0004        214.0004
  24558729.7404   -7203345.20749  -5574738.62845  24558728.9464   24558736.0514
       205.0004        139.0004
  20829847.2804  -22823871.75649 -17375857.45447  20829846.6174   20829851.8964
       241.0004        207.0004
  22545566.7244  -14551599.78449 -11292927.12146  22545566.9494   22545571.9774
       227.0004        180.0004
  20667078.2294  -25114294.50849 -19554921.47148  20667077.8704   20667083.1904
       246.0004        215.0004
  21570862.6444  -27220354.32949 -21184569.70547  21570862.5234   21570865.4734
       236.0004        198.0004
 04 12 17  0 20 30.0000000  0  8G24G30G17G21G10G 6G 5G 2
  23792809.8414  -12343291.41249  -9563933.87545  23792809.2814   23792815.6784
       219.0004        159.0004
  20341650.6474  -26669245.43649 -20363783.83948  20341650.8184   20341655.3524
       245.0004        213.0004
  20910396.8094  -23392621.83249 -17418012.41648  20910396.2344   20910401.8564
       243.0004        214.0004
  24542896.6844   -7286547.94349  -5639571.87345  24542895.8874   24542902.3114
       204.0004        138.0004
  20824942.4894  -22849646.38549 -17395941.55847  20824941.6834   20824947.4044
       242.0004        207.0004
  22532812.9994  -14618620.65549 -11345151.11746  22532812.4594   22532818.9124
       227.0004        179.0004
  20676421.8024  -25065193.68449 -19516661.10048  20676421.1414   20676426.6294
       246.0004        215.0004
  21584580.7304  -27148265.42449 -21128396.52947  21584580.7564   21584583.3674
       237.0004        198.0004
 04 12 17  0 21  0.0000000  0  8G24G30G17G21G10G 6G 5G 2
  23809519.1884  -12255483.32049  -9495511.98545  23809518.8434   23809525.2864
       218.0004        158.0004
  20339378.4464  -26681185.93849 -20373088.12448  20339378.7514   20339383.0114
       246.0004        214.0004
  20915685.2974  -23364830.67149 -17396356.96248  20915684.7534   20915690.6134
       243.0004        214.0004
  24527093.1144   -7369596.18049  -5704284.73445  24527092.3874   24527098.6174
       205.0004        139.0004
  20820155.2114  -22874803.61149 -17415544.57547  20820154.5074   20820160.0254
       241.0004        207.0004
  22520066.9374  -14685601.12749 -11397343.64246  22520066.9024   22520072.8104
       225.0004        179.0004
  20685861.2304  -25015589.13149 -19478008.21548  20685860.7074   20685866.1374
       246.0004        215.0004
  21598335.0954  -27075985.69949 -21072074.66547  21598334.8444   21598337.9484
       236.0004        197.0004
 04 12 17  0 21 30.0000000  0  8G24G30G17G21G10G 6G 5G 2
  23826227.0214  -12167683.12249  -9427096.24045  23826226.0074   23826232.4274
       216.0004        158.0004
  20337216.8544  -26692545.23549 -20381939.52048  20337217.3674   20337221.5854
       247.0004        214.0004
  20921028.2544  -23336753.28249 -17374478.47248  20921027.7144   20921033.4524
       242.0004        214.0004
  24511318.8764   -7452489.80649  -5768877.11045  24511317.9084   24511325.2124
       206.0004        140.0004
  20815485.5774  -22899342.60149 -17434665.84747  20815484.8504   20815490.4344
       241.0004        207.0004
  22507328.6594  -14752540.81249 -11449504.39246  22507328.5414   22507333.6514
       226.0004        179.0004
  20695396.1804  -24965482.61049 -19438964.18848  20695395.7864   20695401.3094
       246.0004        215.0004
  21612125.3384  -27003517.52249 -21015605.95947  21612125.3274   21612127.9284
       236.0004        197.0004
 04 12 17  0 22  0.0000000  0  8G24G30G17G21G10G 6G 5G 2
  23842932.9304  -12079892.54249  -9358687.98945  23842932.6014   23842939.4284
       216.0004        157.0004
  20335165.9664  -26703322.73549 -20390337.55548  20335166.2174   20335170.7244
       247.0004        214.0004
  20926425.3014  -23308391.45449 -17352378.33548  20926424.8184   20926430.3914
       242.0004        213.0004
  24495574.2124   -7535228.42949  -5833348.69845  24495573.9174   24495579.5004
       207.0004        140.0004
  20810933.7294  -22923262.63149 -17453304.80947  20810933.0114   20810938.5774
       241.0004        207.0004
  22494598.2644  -14819439.36749 -11501633.08146  22494598.2744   22494604.1704
       227.0004        180.0004
  20705026.3134  -24914876.12849 -19399530.56948  20705025.9294   20705031.2954
       246.0004        215.0004
  21625951.0384  -26930862.90249 -20958991.96947  21625950.7364   21625953.9514
       237.0004        197.0004
 04 12 17  0 22 30.0000000  0  8G24G30G17G21G10G 6G 5G 2
  23859636.8434  -11992112.78549  -9290288.18745  23859636.7074   23859642.7734
       215.0004        157.0004
  20333225.9334  -26713517.64849 -20398281.63748  20333226.2004   20333230.7014
       246.0004        214.0004
  20931876.2524  -23279746.53149 -17330057.61548  20931875.8544   20931881.3454
       242.0004        213.0004
  24479859.1764   -7617811.57649  -5897699.12845  24479858.5874   24479865.5074
       207.0004        142.0004
  20806499.8684  -22946562.57449 -17471460.59547  20806499.1404   20806504.6854
       241.0004        207.0004
  22481875.8664  -14886296.01949 -11553729.13446  22481876.5214   22481881.6894
       228.0004        180.0004
  20714751.3214  -24863771.02749 -19359708.43048  20714750.8064   20714756.2124
       246.0004        215.0004
  21639811.8744  -26858023.90349 -20902234.31147  21639811.7904   21639814.4014
       236.0004        197.0004
 04 12 17  0 23  0.0000000  0  8G24G30G17G21G10G 6G 5G 2
  23876338.2844  -11904345.59549  -9221898.16245  23876338.0854   23876345.4024
       216.0004        157.0004
  20331396.8214  -26723129.59049 -20405771.45248  20331397.2274   20331401.5734
       247.0004        214.0004
  20937380.7134  -23250820.27849 -17307517.67048  20937380.2834   20937385.7784
       242.0004        213.0004
  24464173.8054   -7700238.97649  -5961928.18845  24464172.8164   24464179.6124
       208.0004        142.0004
  20802184.1494  -22969241.66049 -17489132.58947  20802183.3284   20802188.9814
       241.0004        207.0004
  22469161.5504  -14953110.02349 -11605791.95446  22469161.6934   22469166.9224
       228.0004        181.0004
  20724570.8364  -24812169.01149 -19319499.08148  20724570.3584   20724575.7634
       245.0004        215.0004
  21653707.3614  -26785002.70949 -20845334.67847  21653707.0214   21653709.9534
       237.0004        197.0004
 04 12 17  0 23 30.0000000  0  8G24G30G17G21G10G 6G 5G 2
  23893037.3264  -11816591.27949  -9153518.17045  23893037.8144   23893043.5094
       216.0004        157.0004
  20329678.9164  -26732157.32349 -20412806.04148  20329679.1764   20329683.6204
       247.0004        214.0004
  20942938.6024  -23221613.43849 -17284759.09648  20942938.1064   20942943.8474
       242.0004        213.0004
  24448518.1124   -7782509.33849  -6026034.88245  24448517.8034   24448524.0554
       208.0004        141.0004
  20797986.9344  -22991298.15549 -17506319.45347  20797986.2944   20797991.8414
       241.0004        207.0004
  22456455.6044  -15019880.19549 -11657820.61846  22456455.3794   22456461.1564
       229.0004        182.0004
  20734484.8614  -24760070.58449 -19278902.91748  20734484.4354   20734489.8004
       246.0004        214.0004
  21667637.3124  -26711800.44849 -20788293.96447  21667637.2374   21667640.0954
       236.0004        197.0004
 04 12 17  0 24  0.0000000  0  8G24G30G17G21G10G 6G 5G 2
  23909733.7364  -11728851.61249  -9085149.58845  23909733.6164   23909739.7384
       217.0004        156.0004
  20328072.2614  -26740600.41149 -20419385.05948  20328072.5284   20328077.0334
       247.0004        214.0004
  20948549.5084  -23192127.86349 -17261783.31548  20948549.0514   20948554.5094
       242.0004        213.0004
  24432892.4584   -7864622.48249  -6090019.05545  24432892.4414   24432897.8604
       205.0004        140.0004
  20793908.2714  -23012731.51449 -17523020.74847  20793907.4374   20793913.2354
       240.0004        207.0004
  22443758.0384  -15086606.17149 -11709814.83946  22443757.7604   22443763.1894
       227.0004        182.0004
  20744492.9324  -24707477.75849 -19237921.50248  20744492.3774   20744497.7404
       246.0004        214.0004
  21681601.2324  -26638419.33849 -20731113.88147  21681600.9704   21681604.1894
       236.0004        196.0004
 04 12 17  0 24 30.0000000  0  8G24G30G17G21G10G 6G 5G 2
  23926427.1014  -11641127.62349  -9016793.21645  23926427.7394   23926433.3274
       215.0004        156.0004
  20326576.9824  -26748457.83549 -20425507.71548  20326577.3734   20326581.6444
       247.0004        214.0004
  20954213.2294  -23162364.71149 -17238591.24548  20954212.7604   20954218.1894
       242.0004        213.0004
  24417296.8554   -7946577.41849  -6153879.93845  24417295.7084   24417302.6424
       208.0004        140.0004
  20789948.4434  -23033540.36349 -17539235.42047  20789947.5994   20789953.4674
       241.0004        207.0004
  22431069.1164  -15153286.49049 -11761773.48346  22431068.5944   22431074.6154
       228.0004        182.0004
  20754594.8314  -24654391.72849 -19196555.78048  20754594.4234   20754599.8614
       245.0004        214.0004
  21695598.8744  -26564860.97149 -20673795.67147  21695598.8794   21695601.1584
       236.0004        196.0004
 04 12 17  0 25  0.0000000  0  8G24G30G17G21G10G 6G 5G 2
  23943117.2114  -11553420.74749  -8948450.18945  23943116.9154   23943123.8214
       216.0004        156.0004
  20325193.2524  -26755729.21349 -20431173.72048  20325193.6214   20325197.9494
       247.0004        214.0004
  20959929.5274  -23132325.45349 -17215184.02648  20959929.0234   20959934.5694
       242.0004        213.0004
  24401731.6484   -8028373.32149  -6217616.90945  24401731.2334   24401736.4764
       208.0004        141.0004
  20786107.6384  -23053723.87949 -17554962.82047  20786106.6584   20786112.4934
       241.0004        207.0004
  22418389.0064  -15219920.60249 -11813696.13046  22418389.0824   22418395.0334
       229.0004        182.0004
  20764790.3434  -24600814.00949 -19154806.92548  20764789.8854   20764795.2774
       245.0004        214.0004
  21709629.8974  -26491127.34149 -20616340.89347  21709629.4964   21709632.6774
       236.0004        196.0004
 04 12 17  0 25 30.0000000  0  8G24G30G17G21G10G 6G 5G 2
  23959803.6114  -11465732.92249  -8880122.00245  23959803.2734   23959809.8164
       214.0004        156.0004
  20323921.0834  -26762414.61649 -20436383.11748  20323921.5124   20323925.7614
       247.0004        214.0004
  20965697.9184  -23102012.24749 -17191563.33848  20965697.3604   20965703.0264
       242.0004        213.0004
  24386196.5354   -8110010.77949  -6281230.41145  24386195.5984   24386201.5324
       208.0004        143.0004
  20782385.9504  -23073281.49349 -17570202.50447  20782385.3644   20782390.8234
       241.0004        207.0004
  22405717.7414  -15286508.37649 -11865582.67746  22405717.8444   22405723.0964
       229.0004        183.0004
  20775079.0094  -24546746.75749 -19112676.61148  20775078.5524   20775083.8584
       245.0004        214.0004
  21723693.7984  -26417221.01349 -20558751.54047  21723693.5704   21723696.8224
       235.0004        195.0004
 04 12 17  0 26  0.0000000  0  8G24G30G17G21G10G 6G 5G 2
  23976486.1744  -11378065.07949  -8811809.38445  23976486.4244   23976492.4814
       215.0004        155.0004
  20322760.5974  -26768513.15449 -20441135.22148  20322760.8354   20322765.2374
       247.0004        214.0004
  20971518.2084  -23071426.25149 -17167730.08648  20971517.6204   20971523.1914
       242.0004        213.0004
  24370691.6784   -8191488.93049  -6344719.77345  24370691.1424   24370697.6644
       208.0004        144.0004
  20778783.4804  -23092212.22949 -17584953.71147  20778782.6684   20778788.2914
       241.0004        207.0004
  22393055.5264  -15353048.64049 -11917432.19846  22393056.1404   22393060.8274
       230.0004        183.0004
  20785460.5274  -24492191.42149 -19070165.97748  20785460.0954   20785465.6374
       245.0004        213.0004
  21737790.3284  -26343143.10049 -20501028.49247  21737790.1714   21737793.1094
       235.0004        195.0004
 04 12 17  0 26 30.0000000  0  8G24G30G17G21G10G 6G 5G 2
  23993164.9454  -11290417.37849  -8743512.44245  23993164.8084   23993170.7974
       215.0004        155.0004
  20321712.0634  -26774023.00849 -20445428.61148  20321712.4914   20321716.7614
       247.0004        214.0004
  20977390.3814  -23040567.75049 -17143684.49048  20977389.8354   20977395.4804
       242.0004        213.0004
  24355217.4824   -8272805.76849  -6408083.45345  24355217.3244   24355222.4684
       206.0004        144.0004
  20775300.7424  -23110514.16249 -17599214.94147  20775299.9794   20775305.5894
       241.0004        207.0004
  22380402.7974  -15419539.34349 -11969243.10546  22380402.8004   22380408.3044
       230.0004        184.0004
  20795934.8904  -24437148.32549 -19027275.26848  20795934.4244   20795939.8024
       245.0004        213.0004
  21751919.3284  -26268894.67149 -20443172.57247  21751919.3304   21751922.0604
       235.0004        195.0004
 04 12 17  0 27  0.0000000  0  8G24G30G17G21G10G 6G 5G 2
  24009839.4194  -11202792.74549  -8675233.49245  24009839.1144   24009846.0654
       215.0004        155.0004
  20320775.3704  -26778945.39749 -20449264.23348  20320775.6704   20320779.9744
       247.0004        214.0004
  20983313.8204  -23009439.83549 -17119428.95848  20983313.1354   20983318.8294
       242.0004        213.0004
  24339773.7704   -8353962.50349  -6471322.35645  24339772.9164   24339779.4394
       206.0004        145.0004
  20771937.5074  -23128188.10949 -17612986.83447  20771936.6084   20771942.3034
       241.0004        207.0004
  22367759.2894  -15485981.41949 -12021016.11446  22367759.1134   22367765.1214
       229.0004        184.0004
  20806501.4174  -24381620.82049 -18984007.10048  20806500.9994   20806506.4054
       245.0004        213.0004
  21766080.1854  -26194479.20249 -20385186.48447  21766079.9964   21766082.6794
       235.0004        195.0004
 04 12 17  0 27 30.0000000  0  8G24G30G17G21G10G 6G 5G 2
  24026509.3484  -11115191.93949  -8606973.11145  24026508.4144   24026515.4554
       214.0004        154.0004
  20319950.6414  -26783279.20849 -20452641.22348  20319951.1214   20319955.2594
       247.0004        214.0004
  20989288.3204  -22978043.53849 -17094964.30148  20989287.8184   20989293.3824
       242.0004        213.0004
  24324360.7154   -8434958.15049  -6534435.75845  24324361.1254   24324366.7614
       209.0004        147.0004
  20768694.0034  -23145232.55949 -17626268.21047  20768693.4534   20768698.9034
       241.0004        207.0004
  22355125.2474  -15552373.40449 -12072750.08546  22355125.3494   22355131.3824
       230.0004        185.0004
  20817159.9884  -24325609.61449 -18940362.01848  20817159.4904   20817165.0384
       245.0004        213.0004
  21780272.5014  -26119897.93849 -20327071.20747  21780272.0514   21780275.3114
       235.0004        195.0004
 04 12 17  0 28  0.0000000  0  8G24G30G17G21G10G 6G 5G 2
  24043174.4604  -11027615.87149  -8538732.00445  24043174.8664   24043180.2974
       214.0004        154.0004
  20319237.9954  -26787024.16349 -20455559.36448  20319238.3044   20319242.6464
       247.0004        214.0004
  20995313.6414  -22946380.24449 -17070291.59548  20995313.0774   20995318.8944
       242.0004        213.0004
  24308978.5214   -8515792.06049  -6597423.13845  24308977.5754   24308983.8654
       209.0004        149.0004
  20765570.4454  -23161646.96349 -17639058.64347  20765569.8254   20765575.2354
       241.0004        207.0004
  22342500.9864  -15618714.32749 -12124444.27346  22342500.8494   22342506.8704
       229.0004        185.0004
  20827910.2534  -24269116.61449 -18896341.51748  20827909.9284   20827915.3984
       244.0004        213.0004
  21794496.0414  -26045152.63249 -20268828.10147  21794495.4054   21794499.1444
       235.0004        194.0004
 04 12 17  0 28 30.0000000  0  8G24G30G17G21G10G 6G 5G 2
  24059834.6794  -10940065.87349  -8470511.21645  24059833.7944   24059841.4924
       214.0004        154.0004
  20318637.5384  -26790179.48349 -20458018.04948  20318637.7304   20318642.3984
       247.0004        214.0004
  21001389.5174  -22914451.25049 -17045411.84948  21001389.0314   21001394.6444
       243.0004        213.0004
  24293627.1874   -8596463.37349  -6660283.82945  24293626.4924   24293632.7274
       209.0004        150.0004
  20762566.9304  -23177430.46349 -17651357.45947  20762566.0554   20762571.9854
       241.0004        208.0004
  22329886.5934  -15685003.27249 -12176097.95946  22329886.7814   22329892.8674
       230.0004        185.0004
  20838751.9754  -24212143.24449 -18851946.69548  20838751.4734   20838756.9524
       244.0004        213.0004
  21808750.4544  -25970244.91949 -20210458.44247  21808750.0864   21808753.2614
       235.0004        194.0004
 04 12 17  0 29  0.0000000  0  8G24G30G17G21G10G 6G 5G 2
  24076489.5924  -10852543.51849  -8402311.96145  24076490.3234   24076495.9844
       215.0004        154.0004
  20318149.2764  -26792745.24249 -20460017.33548  20318149.5784   20318154.0334
       246.0004        214.0004
  21007515.6314  -22882258.46349 -17020326.54647  21007515.0204   21007520.7554
       242.0004        212.0004
  24278306.8214   -8676972.18449  -6723017.91045  24278306.0184   24278312.2874
       212.0004        151.0004
  20759683.5684  -23192582.55049 -17663164.26447  20759682.7414   20759688.4694
       240.0004        208.0004
  22317282.1974  -15751239.84549 -12227710.83146  22317282.2774   22317287.4434
       230.0004        185.0004
  20849684.6514  -24154691.65949 -18807179.24047  20849684.2144   20849689.6804
       244.0004        212.0004
  21823035.4364  -25895176.92649 -20151963.89147  21823035.0174   21823038.1684
       234.0004        194.0004
 04 12 17  0 29 30.0000000  0  8G24G30G17G21G10G 6G 5G 2
  24093139.1184  -10765050.00949  -8334135.19245  24093139.4174   24093145.5664
       213.0004        154.0004
  20317773.2474  -26794721.15149 -20461556.99748  20317773.6384   20317778.0914
       247.0004        214.0004
  21013691.5754  -22849803.41049 -16995036.88447  21013691.0144   21013696.6544
       242.0004        212.0004
  24263017.3944   -8757318.28049  -6785625.19545  24263016.1234   24263023.0604
       210.0004        151.0004
  20756920.4414  -23207102.66049 -17674478.62147  20756919.8234   20756925.4364
       240.0004        208.0004
  22304687.9354  -15817423.09649 -12279282.15846  22304687.7264   22304693.3074
       231.0004        186.0004
  20860708.0434  -24096763.43649 -18762040.37647  20860707.7934   20860713.0334
       245.0004        212.0004
  21837350.4924  -25819950.65349 -20093346.00847  21837350.4974   21837353.5594
       234.0004        194.0004
 04 12 17  0 30  0.0000000  0  8G24G30G17G21G10G 6G 5G 2
  24109782.9064  -10677586.00849  -8265981.40645  24109782.6654   24109789.4904
       214.0004        154.0004
  20317509.6844  -26796106.23249 -20462636.27048  20317510.0014   20317514.6204
       247.0004        214.0004
  21019917.3094  -22817086.94349 -16969543.51747  21019916.8644   21019922.5224
       242.0004        212.0004
  24247759.1974   -8837500.37749  -6848104.70345  24247758.7264   24247763.8794
       211.0004        149.0004
  20754277.8704  -23220989.50249 -17685299.52047  20754277.2134   20754282.8034
       241.0004        208.0004
  22292104.0514  -15883551.68649 -12330810.88346  22292103.5184   22292109.7364
       229.0004        186.0004
  20871821.8214  -24038360.14349 -18716531.32847  20871821.4294   20871826.7024
       244.0004        212.0004
  21851695.4714  -25744567.45749 -20034605.83947  21851695.5664   21851697.8114
       235.0004        194.0004
 04 12 17  0 30 30.0000000  0  8G24G30G17G21G10G 6G 5G 2
  24126420.8144  -10590153.07449  -8197851.83145  24126420.3674   24126426.5664
       214.0004        154.0004
  20317358.5054  -26796900.67249 -20463255.30348  20317358.8454   20317363.1924
       247.0004        214.0004
  21026192.3884  -22784111.01149 -16943847.96847  21026191.8204   21026197.5064
       242.0004        212.0004
  24232532.2064   -8917518.31049  -6910456.28345  24232531.3384   24232537.8324
       211.0004        149.0004
  20751755.8234  -23234242.87949 -17695626.80847  20751755.0894   20751760.5414
       241.0004        208.0004
  22279530.6144  -15949625.01849 -12382296.54946  22279529.8024   22279536.4464
       230.0004        187.0004
  20883025.6514  -23979483.64649 -18670653.54847  20883025.2124   20883030.6914
       245.0004        212.0004
  21866069.9244  -25669029.26349 -19975744.90047  21866069.7454   21866072.4804
       234.0004        194.0004
 04 12 17  0 31  0.0000000  0  8G24G30G17G21G10G 6G 5G 2
  24143052.5904  -10502752.20549  -8129747.22845  24143052.7024   24143058.5244
       213.0004        154.0004
  20317319.8314  -26797103.81949 -20463413.59148  20317320.2624   20317324.5654
       247.0004        214.0004
  21032516.6184  -22750876.87649 -16917951.22447  21032516.1224   21032521.5914
       242.0004        212.0004
  24217336.5264   -8997371.81649  -6972679.75745  24217336.2374   24217341.3184
       212.0004        150.0004
  20749354.3954  -23246862.35449 -17705460.14147  20749353.7214   20749359.2304
       241.0004        208.0004
  22266967.9574  -16015642.14949 -12433738.42246  22266967.7794   22266973.3094
       229.0004        187.0004
  20894319.2514  -23920135.42749 -18624408.19347  20894318.9344   20894324.2994
       245.0004        212.0004
  21880473.5104  -25593337.64449 -19916764.40947  21880473.0044   21880476.0334
       234.0004        194.0004
 04 12 17  0 31 30.0000000  0  8G24G30G17G21G10G 6G 5G 2
  24159677.9294  -10415384.82949  -8061668.73145  24159676.5844   24159684.8784
       212.0004        153.0004
  20317393.7304  -26796715.49049 -20463110.98748  20317394.1314   20317398.4204
       245.0004        214.0004
  21038889.6704  -22717386.26349 -16891854.63047  21038889.2604   21038894.8754
       242.0004        212.0004
  24202172.3164   -9077060.08749  -7034774.46645  24202171.3254   24202177.3644
       213.0004        151.0004
  20747073.7094  -23258847.37449 -17714799.09247  20747072.9904   20747078.4964
       241.0004        208.0004
  22254416.1264  -16081602.15049 -12485135.76546  22254416.0684   22254421.6094
       230.0004        187.0004
  20905702.2784  -23860317.36849 -18577796.73147  20905701.7844   20905707.2804
       245.0004        212.0004
  21894905.9114  -25517494.80349 -19857666.07947  21894905.4924   21894908.5804
       234.0004        193.0004
 04 12 17  0 32  0.0000000  0  8G24G30G17G21G10G 6G 5G 2
  24176296.7524  -10328051.55049  -7993616.82045  24176296.3884   24176303.3864
       212.0004        153.0004
  20317580.2864  -26795735.09949 -20462347.03348  20317580.6924   20317585.0504
       245.0004        214.0004
  21045311.3484  -22683640.00249 -16865558.82847  21045310.9044   21045316.2984
       242.0004        212.0004
  24187039.8244   -9156582.08549  -7096739.61945  24187039.3014   24187045.5764
       215.0004        152.0004
  20744913.9754  -23270196.79249 -17723642.76447  20744913.1954   20744918.9754
       241.0004        208.0004
  22241875.4274  -16147503.60249 -12536487.48446  22241874.7314   22241881.3294
       230.0004        187.0004
  20917174.4504  -23800030.63049 -18530820.05647  20917174.0024   20917179.5964
       244.0004        212.0004
  21909366.8234  -25441501.94849 -19798450.85547  21909366.6714   21909369.8424
       234.0004        193.0004
 04 12 17  0 32 30.0000000  0  8G24G30G17G21G10G 6G 5G 2
  24192908.8514  -10240754.47949  -7925593.09145  24192908.6084   24192915.3834
       211.0004        153.0004
  20317879.3944  -26794163.29549 -20461122.23848  20317879.6454   20317884.0624
       245.0004        214.0004
  21051781.1934  -22649640.65449 -16839065.81547  21051780.7254   21051786.2504
       242.0004        212.0004
  24171938.6984   -9235938.66549  -7158575.88745  24171937.6764   24171943.2574
       217.0004        152.0004
  20742875.0684  -23280911.10149 -17731991.54747  20742874.4574   20742879.8284
       241.0004        208.0004
  22229345.8744  -16213346.67349 -12587793.72047  22229345.5644   22229351.0124
       231.0004        188.0004
  20928735.2774  -23739278.24049 -18483480.54447  20928734.7184   20928740.2834
       244.0004        212.0004
  21923855.8354  -25365361.75849 -19739120.82147  21923855.6414   21923858.5294
       234.0004        193.0004
 04 12 17  0 33  0.0000000  0  8G24G30G17G21G10G 6G 5G 2
  24209514.1034  -10153493.70749  -7857597.65945  24209513.3634   24209520.8834
       213.0004        152.0004
  20318291.2104  -26791999.00649 -20459435.77548  20318291.5294   20318296.0484
       246.0004        215.0004
  21058299.1484  -22615388.68549 -16812375.95947  21058298.4534   21058304.0824
       242.0004        211.0004
  24156869.1984   -9315129.40759  -7220283.15445  24156868.3084   24156874.1204
       218.0004        153.0004
  20740957.3254  -23290988.81249 -17739844.27947  20740956.4754   20740962.0304
       241.0004        208.0004
  22216827.7784  -16279129.52949 -12639053.03347  22216826.8914   22216833.1114
       231.0004        189.0004
  20940384.5394  -23678061.00849 -18435778.81647  20940384.1744   20940389.5824
       242.0004        211.0004
  21938372.7084  -25289074.92849 -19679676.53447  21938372.1914   21938375.5714
       232.0004        193.0004
 04 12 17  0 33 30.0000000  0  8G24G30G17G21G10G 6G 5G 2
  24226111.9704  -10066271.48949  -7789632.26045  24226111.4624   24226117.8214
       212.0004        151.0004
  20318815.6284  -26789243.14049 -20457288.33648  20318815.8964   20318820.2584
       245.0004        215.0004
  21064864.6544  -22580886.65349 -16785491.24147  21064864.1784   21064869.6534
       241.0004        211.0004
  24141831.4884   -9394153.38759  -7281860.22345  24141831.1984   24141837.4744
       207.0004        152.0004
  20739160.5424  -23300430.74049 -17747201.59547  20739159.9684   20739165.3254
       242.0004        209.0004
  22204321.0744  -16344852.32249 -12690265.53747  22204320.4794   22204326.4634
       230.0004        188.0004
  20952121.6994  -23616381.90849 -18387717.19447  20952121.1984   20952126.7324
       242.0004        211.0004
  21952916.9674  -25212644.47849 -19620120.32747  21952916.9524   21952919.9884
       233.0004        192.0004
 04 12 17  0 34  0.0000000  0  8G24G30G17G21G10G 6G 5G 2
  24242702.3024   -9979088.42949  -7721697.37045  24242701.6774   24242708.2604
       212.0004        151.0004
  20319452.7734  -26785894.92449 -20454679.32548  20319453.0754   20319457.5344
       246.0004        215.0004
  21071477.5134  -22546135.55149 -16758412.44147  21071476.8804   21071482.2984
       242.0004        211.0004
  24126825.7774   -9473009.15059  -7343306.22145  24126825.7164   24126830.7754
       216.0004        155.0004
  20737485.0114  -23309235.80649 -17754062.65747  20737484.4284   20737489.8114
       242.0004        209.0004
  22191826.1584  -16410513.28549 -12741429.86947  22191825.4594   22191831.4444
       230.0004        188.0004
  20963946.5154  -23554242.09649 -18339296.57447  20963946.0924   20963951.3834
       244.0004        211.0004
  21967488.3604  -25136071.44649 -19560453.01547  21967488.2444   21967491.2194
       233.0004        192.0004
 04 12 17  0 34 30.0000000  0  8G24G30G17G21G10G 6G 5G 2
  24259284.9914   -9891945.40849  -7653793.69445  24259284.6974   24259291.4594
       212.0004        151.0004
  20320202.6764  -26781954.07249 -20451608.52648  20320202.9464   20320207.4194
       246.0004        215.0004
  21078137.5724  -22511136.63749 -16731140.54947  21078137.0694   21078142.7104
       242.0004        211.0004
  24111852.0334   -9551697.13549  -7404621.47745  24111852.5524   24111856.7694
       215.0004        155.0004
  20735930.6854  -23317403.69149 -17760427.21347  20735929.9444   20735935.6864
       242.0004        209.0004
  22179343.1634  -16476111.65049 -12792545.42547  22179343.0604   22179348.1364
       232.0004        188.0004
  20975858.6364  -23491643.34349 -18290518.33947  20975857.9564   20975863.7584
       243.0004        209.0004
  21982086.4534  -25059357.63649 -19500676.00447  21982086.1284   21982089.5154
       233.0004        191.0004
 04 12 17  0 35  0.0000000  0  8G24G30G17G21G10G 6G 5G 2
  24275859.7934   -9804844.45249  -7585922.79645  24275860.3124   24275865.5634
       212.0004        150.0004
  20321065.2594  -26777421.18849 -20448076.40448  20321065.5394   20321069.9214
       245.0004        216.0004
  21084844.3844  -22475892.05949 -16703677.22947  21084843.9064   21084849.4004
       242.0004        210.0004
  24096909.8114   -9630218.75059  -7465807.33945  24096911.8254   24096916.4474
       207.0004        143.0004
  20734497.6304  -23324934.41349 -17766295.27447  20734496.7874   20734502.5254
       242.0004        209.0004
  22166872.1184  -16541646.93049 -12843611.82746  22166871.8444   22166877.5134
       231.0004        187.0004
  20987857.6234  -23428588.20349 -18241384.48347  20987857.1194   20987862.7344
       244.0004        210.0004
  21996711.0104  -24982505.18749 -19440790.96947  21996710.6344   21996713.6324
       233.0004        191.0004
 04 12 17  0 35 30.0000000  0  8G24G30G17G21G10G 6G 5G 2
  24292426.4414   -9717786.27149  -7518085.22745  24292426.3034   24292432.4034
       212.0004        150.0004
  20322040.5354  -26772296.04149 -20444082.77148  20322040.8844   20322045.1614
       244.0004        215.0004
  21091597.7084  -22440403.17849 -16676023.54447  21091597.2414   21091602.9164
       241.0004        210.0004
  24081999.9504   -9708570.80849  -7526860.84245  24081999.2194   24082005.3484
       209.0004        140.0004
  20733185.8604  -23331827.87049 -17771666.77147  20733185.0754   20733190.6114
       242.0004        209.0004
  22154413.3424  -16607118.00949 -12894628.18547  22154412.9494   22154418.8204
       231.0004        188.0004
  20999943.0814  -23365078.64249 -18191896.52547  20999942.5024   20999948.1034
       244.0004        212.0004
  22011361.5984  -24905515.41549 -19380798.92447  22011360.8924   22011364.2064
       232.0004        190.0004
 04 12 17  0 36  0.0000000  0  8G24G30G17G21G10G 6G 5G 2
  24308985.0834   -9630770.50749  -7450280.70945  24308984.2604   24308991.5094
       212.0004        150.0004
  20323128.8054  -26766577.00349 -20439626.37548  20323129.2504   20323133.5334
       247.0004        215.0004
  21098397.4724  -22404669.97949 -16648179.47947  21098396.8344   21098402.7114
       241.0004        210.0004
  24067122.3454   -9786753.08949  -7587782.04745  24067123.0974   24067125.1674
       211.0004        134.0004
  20731995.6954  -23338082.09749 -17776540.15647  20731995.1084   20732000.5504
       243.0004        209.0004
  22141967.2574  -16672522.31549 -12945592.53147  22141967.1854   22141972.9504
       230.0004        188.0004
  21012115.0134  -23301114.68249 -18142054.49248  21012114.6164   21012119.9604
       245.0004        213.0004
  22026038.2684  -24828388.96249 -19320700.38047  22026038.0714   22026040.9614
       233.0004        190.0004
 04 12 17  0 36 30.0000000  0  8G24G30G17G21G10G 6G 5G 2
  24325535.0584   -9543799.68349  -7382511.20145  24325534.6634   24325539.7504
       210.0004        149.0004
  20324329.7694  -26760265.90549 -20434708.62848  20324330.1594   20324334.4624
       246.0004        215.0004
  21105243.1944  -22368695.31549 -16620147.25447  21105242.5954   21105248.2664
       240.0004        210.0004
  24052276.8814   -9864766.17049  -7648571.39145  24052276.7454   24052281.7604
       205.0004        140.0004
  20730926.9004  -23343698.57249 -17780916.61147  20730926.1984   20730931.5894
       243.0004        209.0004
  22129533.7104  -16737860.57349 -12996505.36747  22129533.2034   22129539.2654
       229.0004        188.0004
  21024372.7914  -23236699.65249 -18091860.98048  21024372.5304   21024377.8514
       246.0004        214.0004
  22040740.4224  -24751128.95449 -19260497.75547  22040740.3734   22040742.9904
       232.0004        190.0004
 04 12 17  0 37  0.0000000  0  8G24G30G17G21G10G 6G 5G 2
  24342076.3114   -9456874.21949  -7314777.04045  24342076.8814   24342081.9434
       211.0004        150.0004
  20325643.5794  -26753361.75849 -20429328.76548  20325643.8804   20325648.3874
       246.0004        215.0004
  21112134.6854  -22332480.23249 -16591927.70047  21112134.1944   21112139.5784
       241.0004        210.0004
  24037463.7964   -9942608.95749  -7709228.09345  24037463.4004   24037468.5154
       214.0004        148.0004
  20729979.6624  -23348676.20749 -17784795.26447  20729978.7944   20729984.4484
       242.0004        209.0004
  22117113.0754  -16803131.09349 -13047365.46947  22117112.7414   22117118.4554
       231.0004        188.0004
  21036716.1284  -23171835.09249 -18041317.16447  21036715.7354   21036721.1074
       244.0004        212.0004
  22055467.7034  -24673736.38549 -19200191.84147  22055467.2884   22055470.6884
       231.0004        189.0004
 04 12 17  0 37 30.0000000  0  8G24G30G17G21G10G 6G 5G 2
  24358608.8254   -9369995.05449  -7247078.94645  24358608.8764   24358614.3494
       209.0004        149.0004
  20327070.2174  -26745864.62749 -20423486.83848  20327070.6824   20327075.0464
       245.0004        215.0004
  21119071.6874  -22296025.96649 -16563521.76247  21119071.2714   21119076.7324
       241.0004        210.0004
  24022683.0894  -10020281.70549  -7769752.25045  24022682.3134   24022687.8734
       216.0004        152.0004
  20729154.0614  -23353014.58949 -17788175.79747  20729153.2264   20729158.7854
       243.0004        209.0004
  22104705.6004  -16868332.72449 -13098171.87647  22104705.4414   22104711.1214
       231.0004        189.0004
  21049144.6864  -23106522.89149 -17990424.54647  21049144.2314   21049149.6534
       244.0004        211.0004
  22070219.8514  -24596213.01249 -19139784.00147  22070219.9854   22070222.7764
       232.0004        189.0004
 04 12 17  0 38  0.0000000  0  8G24G30G17G21G10G 6G 5G 2
  24375132.2264   -9283163.97949  -7179418.35445  24375132.1174   24375137.7434
       211.0004        149.0004
  20328609.6584  -26737774.88449 -20417183.13548  20328609.9064   20328614.3964
       246.0004        215.0004
  21126053.8514  -22259334.40549 -16534930.92247  21126053.3184   21126058.9954
       242.0004        210.0004
  24007934.9364  -10097783.87249  -7830143.50845  24007933.9334   24007940.4004
       215.0004        154.0004
  20728450.0274  -23356714.20749 -17791058.59247  20728449.2534   20728454.7474
       243.0004        209.0004
  22092311.3544  -16933464.80649 -13148924.08547  22092311.2414   22092316.4064
       232.0004        189.0004
  21061657.9324  -23040765.35249 -17939184.91847  21061657.5984   21061662.9254
       243.0004        210.0004
  22084996.5934  -24518560.63849 -19079275.64147  22084996.4854   22084999.6714
       232.0004        189.0004
 04 12 17  0 38 30.0000000  0  8G24G30G17G21G10G 6G 5G 2
  24391646.2124   -9196382.05749  -7111796.03945  24391644.8964   24391652.1934
       209.0004        148.0004
  20330261.8194  -26729092.54749 -20410417.66848  20330262.1224   20330266.5534
       245.0004        215.0004
  21133080.8814  -22222407.12049 -16506156.40147  21133080.3034   21133085.8514
       242.0004        210.0004
  23993219.0914  -10175115.87459  -7890402.27545  23993215.1434   23993225.9954
       216.0004        152.0004
  20727867.5954  -23359774.85949 -17793443.49447  20727866.8764   20727872.4854
       243.0004        209.0004
  22079930.4954  -16998526.41149 -13199621.38147  22079930.0524   22079935.7254
       233.0004        188.0004
  21074255.5034  -22974564.64049 -17887599.95747  21074254.7274   21074260.5484
       243.0004        209.0004
  22099797.4964  -24440781.09249 -19018668.18647  22099797.4194   22099800.1164
       232.0004        189.0004
 04 12 17  0 39  0.0000000  0  8G24G30G17G21G10G 6G 5G 2
  24408150.8374   -9109649.48449  -7044212.18345  24408149.8794   24408156.8984
       206.0004        146.0004
  20332026.7604  -26719817.64949 -20403190.45648  20332027.1214   20332031.5794
       243.0004        214.0004
  21140152.5604  -22185245.23049 -16477199.07147  21140151.9274   21140157.5204
       240.0004        209.0004
  23978536.1764  -10252275.46349  -7950526.69045  23978536.1654   23978542.0014
       216.0004        153.0004
  20727406.7914  -23362196.22049 -17795330.24547  20727406.1254   20727411.3454
       237.0004        206.0004
  22067563.3244  -17063516.21249 -13250262.73047  22067562.8344   22067568.3874
       230.0004        189.0004
  21086937.0494  -22907922.44749 -17835671.00047  21086936.7274   21086941.9804
       246.0004        211.0004
  22114622.4154  -24362875.52149 -18957962.48846  22114622.0364   22114625.1524
       231.0004        187.0004
 04 12 17  0 39 30.0000000  0  8G24G30G17G21G10G 6G 5G 2
  24424645.7244   -9022967.99849  -6976668.14145  24424644.8204   24424651.9904
       212.0004        148.0004
  20333904.3384  -26709950.71849 -20395501.94248  20333904.5714   20333909.1204
       245.0004        214.0004
  21147268.4864  -22147850.73749 -16448060.48347  21147268.0414   21147273.4664
       241.0004        209.0004
  23963885.7884  -10329263.89749  -8010517.65245  23963884.5584   23963891.2584
       215.0004        154.0004
  20727067.6214  -23363978.62049 -17796719.10647  20727066.6404   20727072.3874
       243.0004        208.0004
  22055209.9404  -17128433.57449 -13300847.62147  22055209.6464   22055215.6474
       232.0004        189.0004
  21099702.2134  -22840841.36449 -17783400.02047  21099701.9504   21099707.3624
       243.0004        210.0004
  22129470.8894  -24284846.25249 -18897160.48947  22129470.3664   22129473.2264
       231.0004        188.0004
 04 12 17  0 40  0.0000000  0  8G24G30G17G21G10G 6G 5G 2
  24441130.7794   -8936338.31449  -6909164.46145  24441130.2284   24441137.2634
       213.0004        148.0004
  20335894.5654  -26699491.96549 -20387352.25848  20335894.9234   20335899.2424
       245.0004        214.0004
  21154428.4084  -22110224.97549 -16418741.68847  21154427.8344   21154433.2044
       242.0004        210.0004
  23949268.0604  -10406080.54249  -8070374.71445  23949267.7574   23949273.5544
       213.0004        154.0004
  20726850.0024  -23365122.00549 -17797610.03747  20726849.2014   20726854.7894
       243.0004        209.0004
  22042870.4714  -17193277.65449 -13351375.42247  22042870.1894   22042875.9254
       232.0004        190.0004
  21112550.5114  -22773323.22949 -17730788.50047  21112550.0064   21112555.3934
       243.0004        209.0004
  22144342.5674  -24206695.08249 -18836263.46247  22144342.2914   22144345.2814
       232.0004        188.0004
 04 12 17  0 40 30.0000000  0  8G24G30G17G21G10G 6G 5G 2
  24457605.8094   -8849761.39549  -6841701.89345  24457605.3224   24457611.8864
       210.0004        147.0004
  20337997.4534  -26688441.24649 -20378741.30048  20337997.7874   20338002.3104
       245.0004        214.0004
  21161632.1604  -22072369.10549 -16389243.59547  21161631.5774   21161637.1214
       242.0004        209.0004
  23934683.1214  -10482724.57749  -8130097.27945  23934683.0944   23934688.6574
       215.0004        155.0004
  20726754.1154  -23365625.83849 -17798002.61147  20726753.3274   20726758.7734
       243.0004        209.0004
  22030545.2904  -17258046.72349 -13401844.77147  22030545.1514   22030550.7434
       232.0004        191.0004
  21125481.6154  -22705369.83949 -17677837.81847  21125481.1344   21125486.5664
       241.0004        209.0004
  22159237.2104  -24128422.98549 -18775272.20246  22159236.8204   22159239.8124
       230.0004        187.0004
 04 12 17  0 41  0.0000000  0  8G24G30G17G21G10G 6G 5G 2
  24474070.5364   -8763237.87859  -6774280.95545  24474071.1234   24474076.9194
       210.0004        137.0004
  20340213.0604  -26676798.16849 -20369668.76348  20340213.3734   20340217.7254
       245.0004        214.0004
  21168879.4644  -22034284.15949 -16359566.99547  21168878.7904   21168884.2414
       241.0004        209.0004
  23920131.1374  -10559195.61349  -8189685.05445  23920131.1684   23920136.0134
       217.0004        156.0004
  20726780.0044  -23365489.76049 -17797896.55647  20726779.1994   20726784.6324
       243.0004        208.0004
  22018234.6184  -17322739.51849 -13452254.68247  22018234.3244   22018239.8334
       232.0004        191.0004
  21138495.2304  -22636982.74749 -17624549.18747  21138494.6454   21138500.4484
       242.0004        208.0004
  22174154.5964  -24050031.35749 -18714187.78646  22174154.2524   22174157.1254
       231.0004        181.0004
 04 12 17  0 41 30.0000000  0  8G24G30G17G21G10G 6G 5G 2
  24490525.0234   -8676768.92149  -6706902.50345  24490524.2734   24490531.2764
       209.0004        145.0004
  20342541.2314  -26664563.42749 -20360135.19148  20342541.5624   20342545.9214
       247.0004        214.0004
  21176169.9884  -21995971.98449 -16329713.33447  21176169.3534   21176174.9014
       241.0004        209.0004
  23905612.1564  -10635493.33349  -8249137.75245  23905611.5594   23905617.5134
       217.0004        157.0004
  20726927.5264  -23364714.36349 -17797292.32547  20726926.5774   20726932.3144
       241.0004        209.0004
  22005938.5714  -17387355.33249 -13502604.60947  22005938.3364   22005943.6994
       231.0004        191.0004
  21151590.8884  -22568164.62749 -17570924.68447  21151590.5394   21151595.8744
       239.0004        208.0004
  22189094.3584  -23971522.17449 -18653011.78046  22189094.0504   22189097.1884
       230.0004        186.0004
 04 12 17  0 42  0.0000000  0  8G24G30G17G21G10G 6G 5G 2
  24506968.6994   -8590356.37149  -6639568.02045  24506967.6794   24506975.4774
       210.0004        146.0004
  20344981.8044  -26651738.15449 -20350141.46248  20344982.1124   20344986.4144
       245.0004        214.0004
  21183503.3334  -21957434.94549 -16299684.45247  21183502.7864   21183508.1384
       241.0004        209.0004
  23891125.9564  -10711618.59349  -8308456.09545  23891125.7684   23891131.2944
       217.0004        155.0004
  20727196.5074  -23363300.56149 -17796190.63747  20727195.7014   20727201.1634
       243.0004        209.0004
  21993657.2414  -17451893.91949 -13552894.37447  21993657.3684   21993662.4444
       233.0004        190.0004
  21164768.0424  -22498918.08649 -17516966.34847  21164767.4064   21164773.0964
       242.0004        208.0004
  22204056.0384  -23892897.71549 -18591745.94546  22204055.5524   22204058.4724
       230.0004        186.0004
 04 12 17  0 42 30.0000000  0  8G24G30G17G21G10G 6G 5G 2
  24523401.7184   -8503999.91049  -6572277.24545  24523402.3024   24523407.4574
       211.0004        145.0004
  20347534.9274  -26638321.34649 -20339686.79648  20347535.2644   20347539.6514
       245.0004        214.0004
  21190879.4274  -21918673.17149 -16269480.44947  21190878.8204   21190884.4164
       241.0004        209.0004
  23876673.0834  -10787569.50249  -8367638.56845  23876671.9644   23876679.1314
       217.0004        154.0004
  20727587.1944  -23361247.32149 -17794590.68747  20727586.6304   20727592.0154
       243.0004        209.0004
  21981391.0274  -17516352.85349 -13603122.06947  21981390.4604   21981396.4944
       233.0004        190.0004
  21178026.5754  -22429244.03849 -17462674.89247  21178026.1784   21178031.7354
       242.0004        208.0004
  22219039.5834  -23814158.50549 -18530390.69746  22219039.5094   22219042.5194
       229.0004        187.0004
 04 12 17  0 43  0.0000000  0  8G24G30G17G21G10G 6G 5G 2
  24539823.8064   -8417701.45949  -6505031.66745  24539824.4234   24539828.9094
       212.0004        145.0004
  20350200.3914  -26624314.26849 -20328772.18348  20350200.7494   20350205.0364
       245.0004        214.0004
  21198297.8144  -21879689.00349 -16239103.15347  21198297.3344   21198302.6804
       240.0004        209.0004
  23862253.0904  -10863346.61149  -8426685.61145  23862252.7264   23862258.5704
       218.0004        155.0004
  20728099.4484  -23358555.51049 -17792493.14947  20728098.6764   20728103.9724
       243.0004        209.0004
  21969140.0894  -17580731.85349 -13653287.48247  21969140.4014   21969145.0194
       233.0004        191.0004
  21191365.8984  -22359145.41749 -17408052.60447  21191365.5634   21191371.1384
       241.0004        208.0004
  22234044.5734  -23735306.87549 -18468947.85946  22234043.8524   22234047.4354
       231.0004        186.0004
 04 12 17  0 43 30.0000000  0  8G24G30G17G21G10G 6G 5G 2
  24556234.6374   -8331461.62849  -6437831.77145  24556234.0434   24556240.9204
       209.0004        146.0004
  20352978.1604  -26609716.95549 -20317397.64748  20352978.3564   20352982.7544
       245.0004        214.0004
  21205758.3254  -21840483.76349 -16208553.59347  21205757.7294   21205763.3284
       240.0004        208.0004
  23847866.1794  -10938949.96059  -8485597.26145  23847866.0764   23847870.7824
       219.0004        154.0004
  20728733.1444  -23355225.11249 -17789898.00247  20728732.4374   20728737.9044
       243.0004        209.0004
  21956904.6114  -17645029.66749 -13703389.62947  21956904.4014   21956909.8004
       234.0004        191.0004
  21204785.6244  -22288624.53049 -17353101.26047  21204785.1434   21204790.7214
       242.0004        207.0004
  22249070.6554  -23656344.36249 -18407418.59446  22249070.6494   22249073.2664
       230.0004        186.0004
 04 12 17  0 44  0.0000000  0  8G24G30G17G21G10G 6G 5G 2
  24572634.2674   -8245280.88049  -6370677.89945  24572633.5904   24572641.7974
       210.0004        146.0004
  20355868.2344  -26594529.35749 -20305563.14548  20355868.5654   20355872.9364
       245.0004        214.0004
  21213260.7024  -21801058.33249 -16177832.45647  21213260.1864   21213265.5264
       240.0004        208.0004
  23833512.6264  -11014378.09749  -8544372.39545  23833511.8034   23833517.0734
       219.0004        155.0004
  20729488.5144  -23351255.71149 -17786804.93847  20729487.9144   20729493.2984
       244.0004        209.0004
  21944684.8594  -17709244.69449 -13753427.26547  21944684.8914   21944690.0594
       233.0004        192.0004
  21218285.4004  -22217682.57949 -17297821.82547  21218285.0074   21218290.4834
       241.0004        207.0004
  22264117.6464  -23577271.97749 -18345803.72546  22264117.3224   22264120.1054
       230.0004        186.0004
 04 12 17  0 44 30.0000000  0  8G24G30G17G21G10G 6G 5G 2
  24589022.3034   -8159161.17749  -6303571.60645  24589021.0854   24589027.5904
       209.0004        144.0004
  20358870.4114  -26578752.73349 -20293269.66748  20358870.8374   20358875.2274
       245.0004        214.0004
  21220804.5154  -21761415.08549 -16146941.59647  21220804.0134   21220809.5914
       241.0004        209.0004
  23819192.3014  -11089631.61949  -8603011.44745  23819190.9874   23819197.1894
       218.0004        157.0004
  20730365.1904  -23346648.67049 -17783215.01247  20730364.4174   20730369.7374
       243.0004        209.0004
  21932480.9154  -17773376.81449 -13803400.30247  21932480.9094   21932486.0324
       233.0004        193.0004
  21231864.7294  -22146322.79949 -17242216.81047  21231864.3764   21231869.8794
       241.0004        207.0004
  22279185.0174  -23498092.05349 -18284105.06346  22279184.5614   22279188.3184
       229.0004        186.0004
 04 12 17  0 45  0.0000000  0  8G24G30G17G21G10G 6G 5G 2
  24605398.6354   -8073102.59749  -6236512.94245  24605399.6464   24605404.6914
       210.0004        144.0004
  20361984.7514  -26562386.78049 -20280516.96748  20361985.1414   20361989.4984
       245.0004        214.0004
  21228389.7074  -21721554.68249 -16115881.51547  21228389.2724   21228394.4614
       241.0004        209.0004
  23804905.3374  -11164709.86449  -8661513.92245  23804904.8874   23804910.6584
       220.0004        157.0004
  20731363.3164  -23341403.48649 -17779127.82247  20731362.6664   20731368.0514
       243.0004        209.0004
  21920293.0634  -17837424.15349 -13853307.26947  21920292.8474   21920298.4774
       234.0004        193.0004
  21245523.2284  -22074546.70949 -17186287.39147  21245522.6514   21245528.6104
       241.0004        207.0004
  22294272.6544  -23418805.51249 -18222323.32246  22294272.3064   22294275.6384
       229.0004        185.0004
 04 12 17  0 45 30.0000000  0  8G24G30G17G21G10G 6G 5G 2
  24621763.2884   -7987106.15849  -6169502.71045  24621763.0084   24621769.1044
       210.0004        144.0004
  20365211.1754  -26545431.90749 -20267305.37248  20365211.4184   20365215.8134
       245.0004        214.0004
  21236015.9094  -21681478.66249 -16084653.42247  21236015.3624   21236020.7984
       241.0004        209.0004
  23790651.6994  -11239612.98249  -8719879.93545  23790651.1354   23790656.6104
       219.0004        157.0004
  20732482.7914  -23335520.41449 -17774543.58547  20732482.0614   20732487.3194
       243.0004        209.0004
  21908121.6064  -17901385.55449 -13903147.28147  21908121.3034   21908126.8104
       233.0004        193.0004
  21259260.5424  -22002356.56349 -17130035.33847  21259260.1604   21259265.6094
       241.0004        206.0004
  22309380.3894  -23339413.84349 -18160459.66446  22309379.8084   22309383.7444
       230.0004        185.0004
 04 12 17  0 46  0.0000000  0  8G24G30G17G21G10G 6G 5G 2
  24638115.8144   -7901173.75349  -6102542.36045  24638115.3684   24638122.1304
       211.0004        144.0004
  20368549.3174  -26527889.86449 -20253636.24348  20368549.5774   20368554.1544
       245.0004        214.0004
  21243682.5944  -21641189.76249 -16053259.45247  21243682.2254   21243687.4664
       241.0004        209.0004
  23776431.3314  -11314341.43949  -8778109.84945  23776430.7204   23776435.9924
       219.0004        158.0004
  20733723.3404  -23329001.11449 -17769463.58347  20733722.5434   20733727.9964
       242.0004        209.0004
  21895966.4154  -17965261.06249 -13952920.36247  21895966.4284   21895971.6674
       234.0004        194.0004
  21273076.0794  -21929755.70249 -17073463.24747  21273075.7664   21273081.2744
       241.0004        206.0004
  22324507.5884  -23259919.98349 -18098516.37946  22324507.3054   22324510.5364
       230.0004        185.0004
 04 12 17  0 46 30.0000000  0  8G24G30G17G21G10G 6G 5G 2
  24654455.9524   -7815305.72449  -6035632.18145  24654455.5564   24654460.8094
       208.0004        143.0004
  20371999.1824  -26509760.41149 -20239509.39148  20371999.4384   20372004.1064
       245.0004        214.0004
  21251389.7374  -21600688.36249 -16021699.89247  21251389.2594   21251394.4894
       241.0004        209.0004
  23762244.4594  -11388893.81749  -8836202.56145  23762243.7614   23762249.7324
       220.0004        158.0004
  20735085.0574  -23321844.90049 -17763887.28347  20735084.3804   20735089.6304
       242.0004        209.0004
  21883828.0094  -18029048.59149 -14002624.88247  21883827.8014   21883833.3024
       235.0004        194.0004
  21286969.4684  -21856745.43049 -17016572.12547  21286968.9284   21286974.4054
       241.0004        206.0004
  22339654.1004  -23180324.59649 -18036493.98146  22339654.1094   22339656.2364
       229.0004        185.0004
 04 12 17  0 47  0.0000000  0  8G24G30G17G21G10G 6G 5G 2
  24670783.7654   -7729501.97249  -5968772.07745  24670783.2724   24670789.2624
       208.0004        143.0004
  20375560.9624  -26491042.97949 -20224924.37548  20375561.3924   20375565.5224
       245.0004        214.0004
  21259137.1834  -21559975.22949 -15989975.35147  21259136.7964   21259142.2954
       241.0004        209.0004
  23748091.2294  -11463269.43749  -8894157.52645  23748090.3494   23748095.6884
       218.0004        158.0004
  20736568.0764  -23314051.43849 -17757814.43047  20736567.3334   20736572.7134
       242.0004        209.0004
  21871706.7144  -18092746.29049 -14052259.41147  21871706.4134   21871711.9914
       233.0004        194.0004
  21300940.4684  -21783327.13049 -16959363.06947  21300940.0064   21300945.6174
       240.0004        206.0004
  22354819.7854  -23100628.29249 -17974392.93946  22354819.5604   22354822.5804
       230.0004        184.0004
 04 12 17  0 47 30.0000000  0  8G24G30G17G21G10G 6G 5G 2
  24687099.1824   -7643763.46749  -5901962.82145  24687098.6374   24687104.7044
       210.0004        144.0004
  20379234.4984  -26471738.51549 -20209881.93348  20379234.8694   20379239.0234
       245.0004        214.0004
  21266924.6414  -21519051.95349 -15958087.06447  21266924.2654   21266929.7274
       241.0004        209.0004
  23733971.5094  -11537468.13449  -8951974.63845  23733970.7544   23733976.3544
       216.0004        158.0004
  20738172.2924  -23305621.19949 -17751245.38747  20738171.6134   20738177.2024
       241.0004        209.0004
  21859602.6784  -18156353.18049 -14101823.17647  21859602.4124   21859607.7474
       234.0004        194.0004
  21314988.6594  -21709503.40249 -16901838.08947  21314988.1314   21314993.6184
       240.0004        206.0004
  22370004.3844  -23020832.75649 -17912214.58846  22370004.7984   22370007.0934
       229.0004        184.0004
 04 12 17  0 48  0.0000000  0  8G24G30G17G21G10G 6G 5G 2
  24703402.2034   -7558090.51349  -5835204.64745  24703402.3404   24703408.2144
       210.0004        144.0004
  20383019.7654  -26451846.77449 -20194381.86748  20383020.1094   20383024.5504
       245.0004        214.0004
  21274751.9354  -21477919.16549 -15926035.51847  21274751.3664   21274756.9494
       241.0004        209.0004
  23719885.7544  -11611488.80049  -9009653.02845  23719885.2454   23719890.2894
       218.0004        158.0004
  20739897.7624  -23296553.80849 -17744179.85647  20739896.8884   20739902.6204
       242.0004        209.0004
  21847516.3224  -18219867.33749 -14151314.68647  21847516.0394   21847521.3694
       235.0004        195.0004
  21329113.7334  -21635275.58249 -16843998.23247  21329113.2124   21329118.8964
       241.0004        205.0004
  22385207.6734  -22940938.86349 -17849959.58746  22385207.6934   22385210.4484
       229.0004        184.0004
 04 12 17  0 48 30.0000000  0  8G24G30G17G21G10G 6G 5G 2
  24719692.1284   -7472485.97449  -5768499.77945  24719692.9734   24719697.0524
       208.0004        143.0004
  20386916.2264  -26431370.74949 -20178426.51748  20386916.5114   20386920.9534
       245.0004        214.0004
  21282618.3624  -21436580.66749 -15893823.68147  21282617.8304   21282623.4794
       241.0004        209.0004
  23705833.5404  -11685333.60849  -9067194.37245  23705832.7144   23705838.8874
       219.0004        160.0004
  20741743.8634  -23286852.27149 -17736620.18847  20741743.2804   20741748.4064
       242.0004        209.0004
  21835447.3924  -18283289.90449 -14200734.82147  21835447.0854   21835452.4914
       235.0004        195.0004
  21343314.8324  -21560648.38949 -16785847.17847  21343314.5914   21343319.8994
       240.0004        205.0004
  22400428.9694  -22860950.35249 -17787630.86746  22400428.8464   22400431.7804
       229.0004        184.0004
 04 12 17  0 49  0.0000000  0  8G24G30G17G21G10G 6G 5G 2
  24735969.1084   -7386949.33549  -5701847.82445  24735969.6354   24735975.2454
       209.0004        142.0004
  20390924.0114  -26410309.64249 -20162015.26148  20390924.4074   20390928.6914
       245.0004        214.0004
  21290523.9144  -21395036.59949 -15861451.66047  21290523.3574   21290528.8904
       241.0004        209.0004
  23691815.1424  -11759000.81149  -9124597.33145  23691814.7484   23691820.9324
       220.0004        161.0004
  20743710.8494  -23276515.63149 -17728565.63647  20743710.2784   20743715.3474
       242.0004        209.0004
  21823396.3384  -18346618.34349 -14250081.60847  21823395.9974   21823401.2944
       235.0004        195.0004
  21357591.8114  -21485622.51349 -16727385.45847  21357591.4574   21357596.8434
       241.0004        205.0004
  22415668.2794  -22780867.36249 -17725228.51446  22415668.1364   22415670.9714
       229.0004        183.0004
 04 12 17  0 49 30.0000000  0  8G24G30G17G21G10G 6G 5G 2
  24752232.9784   -7301482.16649  -5635250.00445  24752231.9664   24752239.3164
       208.0004        142.0004
  20395042.8754  -26388664.72049 -20145149.08348  20395043.1654   20395047.5034
       245.0004        214.0004
  21298468.2154  -21353288.90849 -15828920.97047  21298467.6784   21298473.1164
       241.0004        208.0004
  23677830.4264  -11832491.07649  -9181862.42145  23677829.8494   23677835.3724
       219.0004        162.0004
  20745798.4654  -23265544.95649 -17720017.02447  20745797.6734   20745802.9834
       242.0004        209.0004
  21811363.3364  -18409851.82049 -14299354.39647  21811362.8984   21811368.6744
       234.0004        195.0004
  21371944.0264  -21410201.17849 -16668615.58347  21371943.4214   21371949.2074
       240.0004        205.0004
  22430925.1354  -22700691.93749 -17662754.14246  22430925.1144   22430927.8814
       228.0004        183.0004
 04 12 17  0 50  0.0000000  0  8G24G30G17G21G10G 6G 5G 2
  24768483.5144   -7216084.77149  -5568706.54545  24768483.5064   24768489.8894
       209.0004        142.0004
  20399272.8064  -26366436.19749 -20127828.14548  20399273.1174   20399277.6664
       245.0004        214.0004
  21306451.0464  -21311338.59249 -15796232.39147  21306450.4314   21306456.1014
       241.0004        208.0004
  23663879.4494  -11905803.92949  -9238989.25045  23663878.7084   23663883.8284
       219.0004        162.0004
  20748006.6904  -23253940.56049 -17710974.60647  20748006.0344   20748011.2404
       242.0004        209.0004
  21799348.6974  -18472988.96049 -14348552.11447  21799348.6554   21799354.1344
       235.0004        195.0004
  21386371.1274  -21334386.17849 -16609538.96547  21386370.6644   21386376.2664
       240.0004        205.0004
  22446199.4084  -22620424.91349 -17600208.37946  22446198.8804   22446202.0294
       228.0004        182.0004
 04 12 17  0 50 30.0000000  0  8G24G30G17G21G10G 6G 5G 2
  24784720.7854   -7130758.07849  -5502218.18545  24784720.0254   24784727.9164
       206.0004        142.0004
  20403613.6674  -26343624.80749 -20110053.03148  20403614.0524   20403618.2714
       245.0004        214.0004
  21314472.2044  -21269187.03349 -15763387.00247  21314471.6784   21314477.1754
       241.0004        208.0004
  23649962.2944  -11978938.79149  -9295977.39746  23649961.9224   23649968.1254
       219.0004        163.0004
  20750335.4734  -23241702.75549 -17701438.62247  20750334.7024   20750339.9324
       241.0004        209.0004
  21787352.6204  -18536028.54749 -14397673.82247  21787352.6404   21787357.4264
       235.0004        195.0004
  21400872.6944  -21258179.89249 -16550157.44547  21400872.3744   21400877.7394
       240.0004        204.0004
  22461490.7474  -22540068.09449 -17537592.66446  22461490.8134   22461493.2824
       228.0004        182.0004
 04 12 17  0 51  0.0000000  0  8G24G30G17G21G10G 6G 5G 2
  24800944.3654   -7045502.92449  -5435785.57245  24800943.9544   24800950.3664
       209.0004        142.0004
  20408065.3294  -26320231.14949 -20091824.20148  20408065.6104   20408069.9724
       245.0004        214.0004
  21322531.4014  -21226835.60249 -15730385.86947  21322530.9694   21322536.3834
       241.0004        208.0004
  23636078.9574  -12051895.44949  -9352826.68846  23636078.3234   23636083.4554
       219.0004        163.0004
  20752784.6134  -23228832.33049 -17691409.68947  20752783.9174   20752789.1494
       242.0004        209.0004
  21775375.3634  -18598969.24349 -14446718.47447  21775375.1814   21775380.5924
       235.0004        195.0004
  21415448.3684  -21181584.30849 -16490472.57847  21415447.9844   21415453.3024
       240.0004        204.0004
  22476798.9354  -22459622.93249 -17474908.08946  22476798.3964   22476801.5364
       228.0004        182.0004
 04 12 17  0 51 30.0000000  0  8G24G30G17G21G10G 6G 5G 2
  24817154.1414   -6960319.85249  -5369409.10945  24817153.6124   24817160.3064
       206.0004        140.0004
  20412627.6614  -26296255.85449 -20073142.14548  20412628.0624   20412632.3654
       245.0004        214.0004
  21330628.3704  -21184285.60149 -15697230.00347  21330627.7944   21330633.4544
       240.0004        208.0004
  23622229.6234  -12124673.82849  -9409537.02446  23622229.1414   23622234.1474
       219.0004        163.0004
  20755354.0704  -23215329.62149 -17680888.06847  20755353.2584   20755358.4284
       241.0004        209.0004
  21763417.2414  -18661809.58049 -14495684.91947  21763417.2704   21763422.0114
       235.0004        195.0004
  21430097.6634  -21104601.76949 -16430486.18347  21430097.2524   21430102.7474
       240.0004        204.0004
  22492123.7294  -22379090.46349 -17412155.48946  22492123.5474   22492126.5494
       229.0004        182.0004
 04 12 17  0 52  0.0000000  0  8G24G30G17G21G10G 6G 5G 2
  24833350.0284   -6875209.80149  -5303089.55745  24833349.5104   24833355.4784
       207.0004        140.0004
  20417300.4734  -26271700.02049 -20054007.72348  20417300.8074   20417305.1734
       245.0004        214.0004
  21338762.8094  -21141538.70049 -15663920.70847  21338762.1524   21338767.9274
       241.0004        208.0004
  23608414.3244  -12197273.58349  -9466108.20546  23608413.9254   23608418.7834
       219.0004        163.0004
  20758043.5864  -23201195.85949 -17669874.71547  20758042.9064   20758048.1464
       242.0004        209.0004
  21751478.3384  -18724548.70349 -14544572.49647  21751478.3954   21751483.5434
       235.0004        195.0004
  21444820.0324  -21027234.92649 -16370200.33247  21444819.4904   21444825.1334
       239.0004        204.0004
  22507464.8804  -22298472.44149 -17349336.23046  22507464.8864   22507467.0354
       227.0004        182.0004
 04 12 17  0 52 30.0000000  0  8G24G30G17G21G10G 6G 5G 2
  24849531.9634   -6790173.11149  -5236827.17145  24849532.2474   24849537.6894
       205.0004        141.0004
  20422083.7344  -26246563.85149 -20034421.09248  20422084.1154   20422088.4744
       245.0004        214.0004
  21346934.5774  -21098595.90949 -15630458.77347  21346933.9554   21346939.3444
       240.0004        207.0004
  23594633.0054  -12269694.36049  -9522539.92046  23594632.7064   23594637.9394
       219.0004        163.0004
  20760853.2244  -23186431.04549 -17658369.63447  20760852.5314   20760857.5434
       242.0004        209.0004
  21739559.0454  -18787184.80049 -14593379.78547  21739559.1264   21739564.0434
       235.0004        196.0004
  21459615.2114  -20949485.62249 -16309616.45747  21459614.7284   21459620.3284
       239.0004        203.0004
  22522822.0504  -22217769.94049 -17286451.13646  22522821.8154   22522824.4934
       227.0004        182.0004
 04 12 17  0 53  0.0000000  0  8G24G30G17G21G10G 6G 5G 2
  24865698.9764   -6705214.37549  -5170625.51945  24865698.6754   24865704.1094
       208.0004        140.0004
  20426976.5144  -26220852.06449 -20014385.92748  20426976.8184   20426981.4014
       245.0004        214.0004
  21355142.6184  -21055462.17749 -15596848.05647  21355142.0934   21355147.6774
       241.0004        207.0004
  23580885.1854  -12341939.52849  -9578834.81046  23580884.8234   23580890.0334
       219.0004        163.0004
  20763782.1184  -23171039.62649 -17646376.29147  20763781.2334   20763786.6914
       242.0004        209.0004
  21727658.8914  -18849720.43149 -14642108.79447  21727658.6554   21727663.7974
       236.0004        196.0004
  21474482.0354  -20871359.84349 -16248739.22447  21474481.5264   21474487.2604
       240.0004        203.0004
  22538194.3354  -22136988.04049 -17223504.17146  22538193.6434   22538196.4894
       228.0004        182.0004
 04 12 17  0 53 30.0000000  0  8G24G30G17G21G10G 6G 5G 2
  24881852.1084   -6620329.28049  -5104481.26145  24881851.8224   24881857.3734
       203.0004        139.0004
  20431979.6854  -26194560.25749 -19993898.80048  20431980.2044   20431984.4024
       245.0004        214.0004
  21363387.7254  -21012133.78849 -15563085.65847  21363387.3154   21363392.6084
       240.0004        207.0004
  23567171.6624  -12414004.05349  -9634988.91645  23567172.4364   23567176.4114
       218.0004        162.0004
  20766831.0204  -23155017.28449 -17633891.32247  20766830.3334   20766835.7314
       242.0004        209.0004
  21715779.0474  -18912148.98049 -14690754.35847  21715778.7494   21715784.0464
       235.0004        196.0004
  21489421.0004  -20792855.14949 -16187566.73547  21489420.6044   21489426.1454
       239.0004        203.0004
  22553582.3974  -22056123.01049 -17160492.43446  22553582.2304   22553585.3304
       228.0004        182.0004
 04 12 17  0 54  0.0000000  0  8G24G30G17G21G10G 6G 5G 2
  24897990.8574   -6535519.89649  -5038396.01145  24897990.4604   24897995.6584
       206.0004        139.0004
  20437092.7424  -26167690.81849 -19972961.56348  20437092.8654   20437097.6604
       245.0004        214.0004
  21371669.2914  -20968613.69949 -15529173.88047  21371668.7224   21371674.1334
       240.0004        207.0004
  23553492.2724  -12485889.31349  -9691003.34045  23553491.8274   23553496.9134
       218.0004        161.0004
  20769999.5324  -23138366.32749 -17620916.51647  20769998.5994   20770003.9154
       242.0004        209.0004
  21703919.4844  -18974470.83149 -14739316.78447  21703919.0494   21703924.4844
       235.0004        197.0004
  21504431.4254  -20713974.82849 -16126101.55047  21504431.0624   21504436.4754
       239.0004        203.0004
  22568985.7814  -21975177.59949 -17097418.05646  22568985.7164   22568988.6114
       227.0004        181.0004
 04 12 17  0 54 30.0000000  0  7G30G17G21G10G 6G 5G 2
  20442316.7894  -26140238.12949 -19951569.85048  20442317.1084   20442321.5194
       245.0004        214.0004
  21379988.3314  -20924896.65649 -15495108.63547  21379987.7524   21379993.1854
       240.0004        206.0004
  23539848.3464  -12557588.20049  -9746872.53845  23539846.8634   23539853.4274
       220.0004        161.0004
  20773288.7424  -23121081.14549 -17607447.51547  20773287.9824   20773293.2454
       242.0004        209.0004
  21692081.7874  -19036678.12949 -14787789.95147  21692081.6544   21692086.9024
       236.0004        197.0004
  21519514.0424  -20634715.00049 -16064340.64447  21519513.5914   21519519.0504
       239.0004        202.0004
  22584405.4614  -21894146.66949 -17034277.04846  22584405.5414   22584408.0034
       229.0004        181.0004
 04 12 17  0 55  0.0000000  0  7G30G17G21G10G 6G 5G 2
  20447649.9184  -26112212.41549 -19929731.61948  20447650.3564   20447654.6304
       245.0004        214.0004
  21388342.7774  -20880993.37949 -15460898.27447  21388342.3094   21388347.7544
       240.0004        206.0004
  23526238.2404  -12629109.95349  -9802603.69646  23526238.1444   23526243.1034
       221.0004        163.0004
  20776696.8104  -23103171.42749 -17593491.86347  20776696.0234   20776701.6154
       242.0004        209.0004
  21680264.3714  -19098778.88149 -14836180.09447  21680264.1354   21680269.1224
       236.0004        197.0004
  21534666.6404  -20555087.59149 -16002293.31647  21534666.2114   21534671.5934
       238.0004        202.0004
  22599839.3924  -21813041.04249 -16971077.83146  22599839.2174   22599841.8344
       228.0004        181.0004
 04 12 17  0 55 30.0000000  0  7G30G17G21G10G 6G 5G 2
  20453092.0644  -26083613.78549 -19907446.96348  20453092.2494   20453096.6914
       245.0004        214.0004
  21396732.6174  -20836904.51849 -15426543.29847  21396732.3004   21396737.5004
       240.0004        206.0004
  23512662.0514  -12700453.32449  -9858195.85946  23512661.5934   23512666.6304
       218.0004        164.0004
  20780223.7314  -23084637.26549 -17579049.63047  20780222.8114   20780228.3684
       242.0004        209.0004
  21668467.6084  -19160771.04649 -14884485.62547  21668467.4224   21668472.8744
       236.0004        198.0004
  21549888.8734  -20475094.34449 -15939960.91447  21549888.5334   21549893.8144
       239.0004        202.0004
  22615287.4214  -21731861.16049 -16907820.76246  22615287.4324   22615290.1934
       228.0004        180.0004
 04 12 17  0 56  0.0000000  0  7G30G17G21G10G 6G 5G 2
  20458643.2334  -26054442.05049 -19884715.73248  20458643.5664   20458648.0824
       244.0004        214.0004
  21405157.7274  -20792630.30149 -15392043.89047  21405157.3984   21405162.8694
       239.0004        206.0004
  23499119.9394  -12771617.64249  -9913648.49846  23499119.6684   23499125.3444
       221.0004        163.0004
  20783869.4334  -23065478.69049 -17564120.84347  20783868.9174   20783873.9264
       242.0004        209.0004
  21656692.0044  -19222652.18449 -14932704.64747  21656692.0544   21656696.9244
       236.0004        198.0004
  21565180.5444  -20394736.25749 -15877344.22847  21565179.8974   21565185.7794
       239.0004        202.0004
  22630749.4954  -21650607.48049 -16844506.18746  22630749.6784   22630752.2484
       228.0004        180.0004
 04 12 17  0 56 30.0000000  0  7G30G17G21G10G 6G 5G 2
  20464303.1524  -26024698.73049 -19861539.11648  20464303.5274   20464307.9134
       245.0004        214.0004
  21413617.7534  -20748172.57749 -15357401.49047  21413617.1214   21413622.7084
       239.0004        206.0004
  23485611.7514  -12842603.21249  -9968961.84145  23485611.3804   23485616.1244
       218.0004        162.0004
  20787633.7804  -23045696.87449 -17548706.41347  20787633.1114   20787638.2394
       242.0004        209.0004
  21644937.6634  -19284421.36649 -14980836.43347  21644937.5524   21644942.5254
       236.0004        199.0004
  21580541.0284  -20314016.42149 -15814445.65347  21580540.6634   21580546.3234
       238.0004        202.0004
  22646225.2094  -21569281.67849 -16781135.41246  22646224.6954   22646227.3534
       227.0004        180.0004
 04 12 17  0 57  0.0000000  0  7G30G17G21G10G 6G 5G 2
  20470072.1514  -25994382.53549 -19837916.09548  20470072.4344   20470076.8804
       246.0004        214.0004
  21422112.8784  -20703530.34549 -15322615.31447  21422112.5804   21422117.7424
       240.0004        205.0004
  23472138.0104  -12913407.36649 -10024133.81645  23472136.8484   23472142.0764
       218.0004        161.0004
  20791516.9294  -23025290.49749 -17532805.30947  20791516.1734   20791521.4954
       243.0004        209.0004
  21633205.2924  -19346075.08049 -15028878.24847  21633205.2644   21633210.1534
       236.0004        199.0004
  21595970.3434  -20232934.78549 -15751265.15647  21595969.9314   21595975.3954
       239.0004        201.0004
  22661714.8834  -21487882.67949 -16717707.59746  22661714.7014   22661716.8394
       228.0004        180.0004
 04 12 17  0 57 30.0000000  0  7G30G17G21G10G 6G 5G 2
  20475949.4294  -25963497.08749 -19813849.50348  20475949.7454   20475954.1644
       245.0004        214.0004
  21430642.3614  -20658707.68349 -15287688.54247  21430641.7654   21430647.1634
       239.0004        205.0004
  23458698.4514  -12984032.37549 -10079166.19445  23458698.2014   23458702.5654
       219.0004        162.0004
  20795518.2334  -23004263.42849 -17516420.54747  20795517.3534   20795522.8194
       242.0004        209.0004
  21621494.6894  -19407614.43849 -15076830.94647  21621494.4714   21621499.8524
       236.0004        199.0004
  21611467.5544  -20151496.39449 -15687806.67247  21611467.1034   21611472.8104
       238.0004        201.0004
  22677217.7284  -21406414.48949 -16654225.87846  22677217.3294   22677219.6374
       225.0004        179.0004
 04 12 17  0 58  0.0000000  0  7G30G17G21G10G 6G 5G 2
  20481935.1064  -25932042.20449 -19789339.19748  20481935.5214   20481939.8484
       245.0004        214.0004
  21439206.1464  -20613704.47449 -15252621.08647  21439205.6374   21439211.0704
       239.0004        205.0004
  23445293.2434  -13054476.97849 -10134057.99945  23445291.9624   23445297.7754
       219.0004        162.0004
  20799637.7274  -22982615.32349 -17499551.86247  20799636.8314   20799642.2144
       242.0004        209.0004
  21609806.3394  -19469036.94049 -15124692.60147  21609806.4024   21609811.2974
       236.0004        199.0004
  21627032.4284  -20069702.42049 -15624071.10347  21627031.8474   21627037.4574
       239.0004        200.0004
  22692733.6874  -21324877.28449 -16590690.37346  22692733.7174   22692735.3644
       226.0004        178.0004
 04 12 17  0 58 30.0000000  0  7G30G17G21G10G 6G 5G 2
  20488029.0754  -25900018.23449 -19764385.44548  20488029.5224   20488033.8234
       245.0004        214.0004
  21447804.1234  -20568521.45549 -15217413.51247  21447803.5954   21447808.8784
       239.0004        204.0004
  23431922.4794  -13124740.04449 -10188808.35746  23431921.5184   23431927.2124
       218.0004        163.0004
  20803875.4234  -22960346.05549 -17482199.15447  20803874.6674   20803879.7434
       242.0004        209.0004
  21598140.6324  -19530340.54349 -15172461.60147  21598140.4884   21598145.3784
       236.0004        199.0004
  21642664.5814  -19987554.69149 -15560059.88547  21642663.9854   21642669.4544
       238.0004        200.0004
  22708262.7094  -21243271.45349 -16527101.40046  22708262.7574   22708265.4564
       226.0004        178.0004
 04 12 17  0 59  0.0000000  0  7G30G17G21G10G 6G 5G 2
  20494231.0054  -25867426.98449 -19738989.65648  20494231.2694   20494235.7464
       245.0004        214.0004
  21456435.9994  -20523160.59549 -15182067.36847  21456435.4294   21456440.7074
       239.0004        204.0004
  23418586.0464  -13194822.92449 -10243418.29046  23418585.8504   23418591.0374
       220.0004        164.0004
  20808230.8864  -22937457.84849 -17464364.15947  20808230.0524   20808235.4524
       242.0004        208.0004
  21586497.7294  -19591524.39449 -15220137.30247  21586497.5094   21586502.2804
       236.0004        199.0004
  21658363.5084  -19905056.20049 -15495775.34747  21658363.0974   21658368.4414
       238.0004        200.0004
  22723804.4184  -21161598.85949 -16463460.39646  22723804.1184   22723806.9304
       226.0004        178.0004
 04 12 17  0 59 30.0000000  0  7G30G17G21G10G 6G 5G 2
  20500540.5934  -25834269.76749 -19713152.85248  20500540.9414   20500545.3584
       245.0004        214.0004
  21465101.4444  -20477623.30849 -15146583.74147  21465100.7804   21465106.2804
       239.0004        204.0004
  23405284.0014  -13264725.46949 -10297887.70646  23405283.5794   23405289.1394
       221.0004        167.0004
  20812703.9074  -22913951.82849 -17446047.74947  20812703.1054   20812708.3244
       242.0004        208.0004
  21574877.7564  -19652587.56349 -15267718.96047  21574877.5534   21574882.8134
       236.0004        199.0004
  21674128.6134  -19822210.10049 -15431219.94847  21674128.1634   21674133.4114
       237.0004        199.0004
  22739358.5964  -21079861.29349 -16399768.77346  22739357.9204   22739360.4534
       226.0004        178.0004
 04 12 17  1  0  0.0000000  0  7G30G17G21G10G 6G 5G 2
  20506957.6844  -25800547.62849 -19686875.84748  20506958.0284   20506962.4464
       245.0004        214.0004
  21473800.1834  -20431910.99049 -15110963.72847  21473799.6784   21473805.1064
       239.0004        204.0004
  23392016.3654  -13334447.22449 -10352216.25946  23392016.4444   23392020.4104
       222.0004        167.0004
  20817294.3304  -22889828.86349 -17427250.60347  20817293.5284   20817298.9914
       241.0004        208.0004
  21563281.1094  -19713528.27049 -15315205.19747  21563281.0414   21563285.9134
       237.0004        199.0004
  21689959.4864  -19739018.34349 -15366395.19747  21689959.0044   21689964.5824
       238.0004        199.0004
  22754924.8714  -20998059.79649 -16336027.32346  22754924.7634   22754927.1424
       227.0004        178.0004
 04 12 17  1  0 30.0000000  0  7G30G17G21G10G 6G 5G 2
  20513482.1034  -25766261.65149 -19660159.49648  20513482.4124   20513486.9034
       245.0004        214.0004
  21482532.0024  -20386024.93049 -15075208.33247  21482531.3134   21482537.0084
       239.0004        204.0004
  23378783.1594  -13403987.78549 -10406403.62546  23378783.0354   23378788.2384
       220.0004        166.0004
  20822001.9464  -22865090.07249 -17407973.59447  20822001.1694   20822006.4314
       241.0004        208.0004
  21551707.9674  -19774345.27249 -15362595.04647  21551707.8834   21551712.9264
       237.0004        199.0004
  21705855.6344  -19655483.57749 -15301303.17347  21705855.3794   21705860.7504
       238.0004        199.0004
  22770503.1214  -20916195.52449 -16272236.97046  22770502.8494   22770505.4854
       226.0004        178.0004
 04 12 17  1  1  0.0000000  0  7G30G17G21G10G 6G 5G 2
  20520113.7304  -25731412.10149 -19633003.99348  20520114.0614   20520118.3744
       244.0004        214.0004
  21491296.7844  -20339965.47149 -15039317.81247  21491296.1654   21491301.7694
       238.0004        203.0004
  23365584.6484  -13473346.28849 -10460449.11846  23365584.2234   23365587.6994
       220.0004        165.0004
  20826826.7044  -22839735.63349 -17388216.85347  20826825.9984   20826831.2494
       242.0004        208.0004
  21540158.8164  -19835036.18249 -15409886.63047  21540158.9184   21540163.9234
       237.0004        199.0004
  21721816.8274  -19571607.32949 -15235945.05147  21721816.4494   21721821.9154
       237.0004        199.0004
  22786093.2054  -20834268.79749 -16208397.93346  22786092.5964   22786095.5654
       227.0004        178.0004
 04 12 17  1  1 30.0000000  0  7G30G17G21G10G 6G 5G 2
  20526851.8334  -25696003.05149 -19605412.51648  20526852.1064   20526856.6004
       245.0004        213.0004
  21500093.8194  -20293736.56449 -15003295.26547  21500093.2754   21500098.7224
       238.0004        203.0004
  23352420.2254  -13542525.56849 -10514354.97346  23352419.7664   23352425.0324
       222.0004        165.0004
  20831767.8874  -22813769.47249 -17367983.45247  20831767.2084   20831772.2584
       241.0004        208.0004
  21528633.4704  -19895602.35849 -15457081.02947  21528633.4874   21528638.2514
       237.0004        200.0004
  21737841.9354  -19487394.61449 -15170324.75447  21737841.3464   21737846.8504
       237.0004        198.0004
  22801694.5204  -20752283.62349 -16144513.36546  22801694.6054   22801697.0344
       227.0004        177.0004
 04 12 17  1  2  0.0000000  0  7G30G17G21G10G 6G 5G 2
  20533696.5604  -25660033.89049 -19577384.58548  20533696.7884   20533701.1684
       245.0004        213.0004
  21508923.1354  -20247337.93949 -14967140.46147  21508922.7034   21508927.9034
       238.0004        203.0004
  23339290.2354  -13611523.99849 -10568119.90546  23339289.3364   23339294.1184
       222.0004        167.0004
  20836825.5394  -22787191.09049 -17347272.99147  20836824.6764   20836829.8414
       241.0004        208.0004
  21517132.4184  -19956040.60749 -15504175.72847  21517132.2194   21517137.3224
       237.0004        200.0004
  21753930.9314  -19402846.31649 -15104442.96047  21753930.4274   21753936.0364
       237.0004        198.0004
  22817306.9684  -20670239.63549 -16080582.96546  22817307.3474   22817309.0974
       226.0004        177.0004
 04 12 17  1  2 30.0000000  0  7G30G17G21G10G 6G 5G 2
  20540647.6434  -25623505.65049 -19548921.01648  20540647.8954   20540652.3354
       245.0004        213.0004
  21517784.5994  -20200770.51849 -14930854.13447  21517783.7884   21517789.5804
       238.0004        203.0004
  23326194.7284  -13680340.93449 -10621743.41446  23326194.0724   23326198.9274
       221.0004        167.0004
  20841999.5374  -22760001.40149 -17326086.19347  20841998.8244   20842004.0094
       241.0004        208.0004
  21505656.0234  -20016349.35349 -15551169.52247  21505655.8944   21505660.8164
       238.0004        201.0004
  21770083.3304  -19317964.83049 -15038301.53947  21770082.5854   21770088.4404
       237.0004        198.0004
  22832930.4814  -20588137.59549 -16016607.32746  22832930.1914   22832932.6524
       227.0004        177.0004
 04 12 17  1  3  0.0000000  0  7G30G17G21G10G 6G 5G 2
  20547704.9214  -25586419.29549 -19520022.55048  20547705.4004   20547709.6574
       245.0004        213.0004
  21526677.9784  -20154035.25249 -14894437.01947  21526677.2214   21526682.6734
       238.0004        202.0004
  23313133.8024  -13748976.26049 -10675225.39846  23313132.5644   23313138.2534
       221.0004        166.0004
  20847289.6514  -22732201.61449 -17304423.99347  20847288.9924   20847294.0994
       242.0004        208.0004
  21494204.6124  -20076526.65349 -15598060.89347  21494204.6324   21494209.4594
       238.0004        201.0004
  21786298.6694  -19232752.45349 -14971902.28347  21786298.0904   21786303.7904
       236.0004        197.0004
  22848564.8444  -20505978.45349 -15952587.19646  22848563.9484   22848567.4064
       226.0004        177.0004
 04 12 17  1  3 30.0000000  0  7G30G17G21G10G 6G 5G 2
  20554868.1284  -25548776.62949 -19490690.59448  20554868.3714   20554872.7854
       245.0004        213.0004
  21535602.9494  -20107134.01549 -14857890.57147  21535602.4634   21535607.6634
       238.0004        202.0004
  23300107.3874  -13817429.96949 -10728565.87046  23300106.1624   23300111.9594
       221.0004        167.0004
  20852695.5584  -22703793.28549 -17282287.60647  20852694.6704   20852699.9294
       241.0004        208.0004
  21482778.4284  -20136571.61449 -15644849.14047  21482778.1324   21482783.2734
       238.0004        201.0004
  21802576.4214  -19147212.31449 -14905247.63247  21802576.0414   21802581.5364
       237.0004        197.0004
  22864209.6594  -20423763.95549 -15888523.92646  22864209.1274   22864211.9264
       224.0004        176.0004
 04 12 17  1  4  0.0000000  0  7G30G17G21G10G 6G 5G 2
  20562136.8434  -25510579.04349 -19460926.23848  20562137.2594   20562141.4574
       245.0004        213.0004
  21544559.2864  -20060068.06649 -14821215.78547  21544558.7924   21544564.1814
       238.0004        202.0004
  23287115.5634  -13885702.31249 -10781765.01846  23287115.2864   23287120.3564
       223.0004        168.0004
  20858217.0244  -22674777.49949 -17259677.87647  20858216.2174   20858221.4564
       241.0004        207.0004
  21471377.6414  -20196482.91949 -15691533.22447  21471377.4754   21471382.4264
       238.0004        201.0004
  21818916.0824  -19061346.89649 -14838339.51547  21818915.6294   21818921.1404
       236.0004        197.0004
  22879864.7494  -20341495.36549 -15824418.50946  22879864.4094   22879866.8694
       224.0004        175.0004
 04 12 17  1  4 30.0000000  0  7G30G17G21G10G 6G 5G 2
  20569510.9454  -25471827.96649 -19430730.58548  20569511.3744   20569515.6544
       245.0004        213.0004
  21553546.7474  -20012838.75549 -14784413.70147  21553546.4504   21553551.6614
       238.0004        202.0004
  23274158.3334  -13953792.99749 -10834822.62746  23274158.0164   23274161.9354
       223.0004        168.0004
  20863853.8164  -22645155.94449 -17236596.12347  20863853.2454   20863858.1594
       242.0004        207.0004
  21460002.6124  -20256259.02549 -15738111.96047  21460002.4194   21460007.5894
       239.0004        202.0004
  21835317.1634  -18975158.66249 -14771179.84947  21835316.7354   21835322.3844
       236.0004        197.0004
  22895529.9764  -20259173.85449 -15760271.85546  22895529.6454   22895532.2284
       224.0004        175.0004
 04 12 17  1  5  0.0000000  0  7G30G17G21G10G 6G 5G 2
  20576990.0194  -25432525.01349 -19400104.89848  20576990.4164   20576994.5494
       245.0004        213.0004
  21562564.9874  -19965447.55449 -14747485.47147  21562564.5374   21562569.7364
       238.0004        202.0004
  23261235.5504  -14021702.41149 -10887738.96746  23261235.0724   23261239.7284
       223.0004        168.0004
  20869605.5884  -22614930.16249 -17213043.54147  20869604.8534   20869610.0284
       242.0004        208.0004
  21448653.5044  -20315898.92149 -15784584.55447  21448653.1464   21448658.2644
       240.0004        202.0004
  21851779.1474  -18888650.33949 -14703770.76447  21851778.8184   21851784.2454
       236.0004        196.0004
  22911205.0024  -20176800.75149 -15696084.99646  22911204.7134   22911207.6604
       224.0004        175.0004
 04 12 17  1  5 30.0000000  0  7G30G17G21G10G 6G 5G 2
  20584573.9774  -25392671.07149 -19369049.87448  20584574.4164   20584578.7564
       245.0004        213.0004
  21571613.8204  -19917895.34249 -14710431.77847  21571613.3834   21571619.0144
       237.0004        202.0004
  23248347.1654  -14089430.61849 -10940514.11746  23248346.7544   23248350.8454
       222.0004        168.0004
  20875472.1744  -22584101.02049 -17189020.80847  20875471.4624   20875476.7874
       241.0004        208.0004
  21437330.7214  -20375400.51549 -15830949.38647  21437330.4654   21437335.3594
       239.0004        202.0004
  21868301.5814  -18801824.18349 -14636114.01447  21868300.9204   21868306.8124
       236.0004        196.0004
  22926889.7524  -20094376.90349 -15631858.60646  22926889.7944   22926892.4674
       223.0004        174.0004
 04 12 17  1  6  0.0000000  0  7G30G17G21G10G 6G 5G 2
  20592262.4614  -25352267.78249 -19337566.78548  20592262.7134   20592267.1934
       245.0004        213.0004
  21580693.0874  -19870183.45049 -14673253.66147  21580692.5974   21580697.7454
       238.0004        202.0004
  23235493.5094  -14156977.00649 -10993147.57346  23235493.6324   23235497.2544
       224.0004        169.0004
  20881453.3094  -22552669.73949 -17164528.87647  20881452.4714   20881457.8674
       242.0004        208.0004
  21426034.4484  -20434762.52249 -15877205.44047  21426034.2254   21426039.3254
       239.0004        203.0004
  21884883.9754  -18714683.04049 -14568211.82447  21884883.8504   21884889.0484
       236.0004        196.0004
  22942583.8154  -20011903.51449 -15567593.60246  22942583.6604   22942586.2644
       224.0004        174.0004
 04 12 17  1  6 30.0000000  0  8G30G17G21G10G 6G29G 5G 2
  20600053.9104  -25311323.28749 -19305661.97548  20600054.1994   20600058.5884
       245.0004        213.0004
  21589801.2144  -19822320.01749 -14635957.45647  21589800.6524   21589805.8294
       237.0004        202.0004
  23222673.0704  -14224348.53649 -11045644.79446  23222672.7684   23222677.8974
       222.0004        168.0004
  20887547.4294  -22520644.87849 -17139574.41547  20887546.5624   20887551.9184
       242.0004        208.0004
  21414763.7564  -20493990.21549 -15923356.83447  21414763.4084   21414768.5694
       239.0004        203.0004
  24469312.5504   -5702393.87359  -4411638.30245  24469311.7384   24469317.6934
       206.0004        136.0004
  21901524.5584  -18627236.16149 -14500071.39947  21901524.2504   21901529.5314
       236.0004        196.0004
  22958285.8484  -19929388.58649 -15503296.22746  22958285.3804   22958287.7384
       223.0004        174.0004
 04 12 17  1  7  0.0000000  0  8G30G17G21G10G 6G29G 5G 2
  20607949.6884  -25269830.51549 -19273329.94247  20607950.0734   20607954.3164
       245.0004        212.0004
  21598939.5534  -19774297.61149 -14598537.38147  21598938.9864   21598944.1784
       238.0004        201.0004
  23209887.5084  -14291536.40349 -11097998.89846  23209886.5004   23209891.3944
       222.0004        167.0004
  20893755.8584  -22488019.26449 -17114151.83347  20893755.2944   20893760.3684
       242.0004        207.0004
  21403520.5064  -20553073.57449 -15969395.75947  21403520.4114   21403525.3434
       239.0004        203.0004
  24455081.0764   -5777180.51449  -4469913.55045  24455081.3394   24455086.3684
       209.0004        137.0004
  21918224.5234  -18539477.45549 -14431687.99447  21918224.2494   21918229.3844
       236.0004        196.0004
  22973997.2144  -19846824.53749 -15438960.58646  22973996.5134   22974000.2354
       224.0004        173.0004
 04 12 17  1  7 30.0000000  0  8G30G17G21G10G 6G29G 5G 2
  20615949.5044  -25227791.13149 -19240571.97747  20615949.7954   20615954.2174
       244.0004        212.0004
  21608107.8594  -19726117.61449 -14560994.51247  21608107.5084   21608112.7284
       238.0004        201.0004
  23197136.8934  -14358540.96449 -11150210.16946  23197136.3874   23197141.1924
       223.0004        168.0004
  20900078.3204  -22454794.46249 -17088262.35247  20900077.6174   20900082.7344
       242.0004        207.0004
  21392304.9704  -20612011.25949 -16015321.17547  21392304.8464   21392309.9094
       240.0004        203.0004
  24440852.3564   -5851953.12349  -4528177.82945  24440851.3914   24440858.8524
       205.0004        137.0004
  21934983.2354  -18451409.94149 -14363063.96447  21934982.7074   21934988.6034
       236.0004        196.0004
  22989717.6964  -19764212.75149 -15374587.75346  22989717.8104   22989719.8244
       223.0004        173.0004
 04 12 17  1  8  0.0000000  0  8G30G17G21G10G 6G29G 5G 2
  20624053.0274  -25185206.81149 -19207389.38747  20624053.2754   20624057.5384
       245.0004        212.0004
  21617305.9254  -19677781.52249 -14523330.00447  21617305.5014   21617310.6714
       238.0004        201.0004
  23184421.1324  -14425362.37549 -11202278.71946  23184420.9594   23184425.2014
       224.0004        169.0004
  20906514.4384  -22420972.31249 -17061907.40547  20906513.6524   20906518.7864
       242.0004        207.0004
  21381117.4414  -20670801.78949 -16061131.92947  21381117.2814   21381122.3474
       241.0004        203.0004
  24426626.5994   -5926708.92449  -4586429.01645  24426627.1684   24426633.1604
       206.0004        136.0004
  21951800.2564  -18363035.99049 -14294201.14647  21951799.9854   21951805.2424
       235.0004        195.0004
  23005447.0374  -19681554.55149 -15310178.74346  23005447.3804   23005449.2384
       224.0004        173.0004
 04 12 17  1  8 30.0000000  0  8G30G17G21G10G 6G29G 5G 2
  20632259.7464  -25142080.04549 -19173784.11047  20632260.0644   20632264.1794
       244.0004        212.0004
  21626533.2744  -19629291.31249 -14485545.40647  21626532.7234   21626537.9454
       237.0004        201.0004
  23171740.1634  -14492001.11549 -11254204.93746  23171739.2294   23171743.9894
       223.0004        169.0004
  20913063.7894  -22386555.06649 -17035088.74747  20913063.2184   20913068.2554
       242.0004        207.0004
  21369958.0524  -20729444.73149 -16106827.68147  21369957.8964   21369962.8224
       240.0004        204.0004
  24412404.7364   -6001445.33949  -4644665.10845  24412405.6134   24412409.1984
       202.0004        136.0004
  21968674.8494  -18274359.40849 -14225102.51047  21968674.5234   21968680.0094
       235.0004        195.0004
  23021184.9124  -19598851.83449 -15245735.04446  23021184.6854   23021187.8474
       224.0004        173.0004
 04 12 17  1  9  0.0000000  0  8G30G17G21G10G 6G29G 5G 2
  20640569.2984  -25098412.94249 -19139757.79847  20640569.7114   20640574.0914
       244.0004        212.0004
  21635789.5594  -19580649.04949 -14447642.32547  21635789.0254   21635794.5144
       238.0004        201.0004
  23159093.7394  -14558458.12549 -11305989.53646  23159093.3534   23159097.7644
       223.0004        169.0004
  20919725.9664  -22351545.08049 -17007808.21447  20919725.2964   20919730.4374
       241.0004        207.0004
  21358826.9314  -20787939.18449 -16152407.72347  21358826.7224   21358831.7044
       240.0004        204.0004
  24398186.7874   -6076160.44949  -4702884.61645  24398185.9474   24398192.4904
       204.0004        135.0004
  21985606.4154  -18185383.54649 -14155770.67047  21985605.7824   21985611.5204
       235.0004        194.0004
  23036930.8494  -19516106.51949 -15181258.16446  23036931.4644   23036933.0014
       225.0004        173.0004
 04 12 17  1  9 30.0000000  0  8G30G17G21G10G 6G29G 5G 2
  20648981.2254  -25054208.07649 -19105312.44347  20648981.6174   20648986.0774
       244.0004        212.0004
  21645074.3884  -19531856.80349 -14409622.37447  21645073.8674   21645079.2244
       238.0004        201.0004
  23146481.7354  -14624734.32849 -11357633.24446  23146481.8344   23146485.5074
       224.0004        169.0004
  20926500.5014  -22315944.61149 -16980067.56547  20926499.6164   20926505.0044
       242.0004        207.0004
  21347724.1544  -20846284.55049 -16197871.59747  21347723.9984   21347728.8774
       240.0004        204.0004
  24383973.3554   -6150852.22259  -4761085.94445  24383972.8174   24383980.0814
       204.0004        135.0004
  22002594.2294  -18096111.87949 -14086208.33447  22002593.7614   22002599.1784
       235.0004        193.0004
  23052684.5154  -19433320.65249 -15116749.67746  23052684.8984   23052686.9454
       225.0004        173.0004
